EW8144 Weather Reports


Display with metric or nautical units.
time (UTC)temp
F
wind
direction
speed
MPH
gust
MPH
rain 1hr
in
rain 24hr
in
rain mn
in
humidity
%
barometer
mb
20190616090637 68 276 14.0 24.0 0.00 0.00 0.00 79 1019.8
20190616090534 68 267 14.0 24.0 0.00 0.00 0.00 79 1019.7
20190616090430 68 269 16.0 24.0 0.00 0.00 0.00 79 1019.7
20190616090321 68 268 18.0 24.0 0.00 0.00 0.00 78 1019.8
20190616090155 67 253 16.0 21.0 0.00 0.00 0.00 79 1019.7
20190616090029 67 243 13.0 23.0 0.00 0.00 0.00 80 1019.7
20190616085922 67 254 14.0 23.0 0.00 0.00 0.00 81 1019.7
20190616085752 67 272 15.0 24.0 0.00 0.00 0.00 79 1019.7
20190616085627 67 278 14.0 26.0 0.00 0.00 0.00 80 1019.7
20190616085524 67 258 14.0 26.0 0.00 0.00 0.00 80 1019.6
20190616085417 67 271 15.0 26.0 0.00 0.00 0.00 79 1019.7
20190616085314 67 274 17.0 26.0 0.00 0.00 0.00 79 1019.6
20190616085208 67 265 18.0 26.0 0.00 0.00 0.00 79 1019.7
20190616084928 67 265 18.0 26.0 0.00 0.00 0.00 79 1019.7
20190616084823 67 268 17.0 25.0 0.00 0.00 0.00 79 1019.7
20190616084657 67 292 17.0 25.0 0.00 0.00 0.00 79 1019.7
20190616084552 67 259 18.0 25.0 0.00 0.00 0.00 80 1019.6
20190616084448 67 274 17.0 25.0 0.00 0.00 0.00 80 1019.6
20190616084325 67 273 16.0 25.0 0.00 0.00 0.00 81 1019.6
20190616084222 67 268 13.0 25.0 0.00 0.00 0.00 81 1019.6
20190616084117 67 261 12.0 25.0 0.00 0.00 0.00 81 1019.6
20190616084013 66 259 13.0 25.0 0.00 0.00 0.00 82 1019.6
20190616083903 66 254 15.0 25.0 0.00 0.00 0.00 80 1019.4
20190616083759 66 284 17.0 25.0 0.00 0.00 0.00 81 1019.6
20190616083625 66 261 18.0 25.0 0.00 0.00 0.00 80 1019.5
20190616083522 66 261 18.0 22.0 0.00 0.00 0.00 80 1019.5
20190616083413 66 284 16.0 22.0 0.00 0.00 0.00 80 1019.5
20190616083311 66 270 15.0 24.0 0.00 0.00 0.00 81 1019.5
20190616083204 66 284 16.0 24.0 0.00 0.00 0.00 81 1019.5
20190616083101 66 260 15.0 24.0 0.00 0.00 0.00 81 1019.4
20190616082945 66 268 15.0 24.0 0.00 0.00 0.00 81 1019.4
20190616082840 66 269 15.0 24.0 0.00 0.00 0.00 81 1019.4
20190616082738 66 269 15.0 24.0 0.00 0.00 0.00 81 1019.5
20190616082631 66 265 16.0 24.0 0.00 0.00 0.00 81 1019.4
20190616082508 66 277 18.0 24.0 0.00 0.00 0.00 80 1019.4
20190616082328 66 263 15.0 24.0 0.00 0.00 0.00 81 1019.3
20190616082225 66 263 14.0 25.0 0.00 0.00 0.00 81 1019.3
20190616082117 66 265 14.0 26.0 0.00 0.00 0.00 82 1019.3
20190616082013 66 275 13.0 26.0 0.00 0.00 0.00 82 1019.3
20190616081906 66 253 13.0 26.0 0.00 0.00 0.00 82 1019.3
20190616081803 66 270 15.0 26.0 0.00 0.00 0.00 82 1019.4
20190616081641 66 283 16.0 26.0 0.00 0.00 0.00 82 1019.3
20190616081536 66 261 17.0 26.0 0.00 0.00 0.00 81 1019.3
20190616081430 66 267 17.0 26.0 0.00 0.00 0.00 82 1019.3
20190616081328 66 280 18.0 26.0 0.00 0.00 0.00 82 1019.2
20190616081221 66 251 19.0 26.0 0.00 0.00 0.00 82 1019.2
20190616081116 66 265 18.0 26.0 0.00 0.00 0.00 82 1019.2
20190616081050 65 244 17.0 26.0 0.00 0.00 0.00 82 1017.8
20190616081005 66 277 16.0 25.0 0.00 0.00 0.00 82 1019.2
20190616080846 66 263 18.0 26.0 0.00 0.00 0.00 82 1019.2
20190616080742 66 270 19.0 26.0 0.00 0.00 0.00 82 1019.2
20190616080616 66 253 17.0 26.0 0.00 0.00 0.00 82 1019.3
20190616080454 66 261 15.0 26.0 0.00 0.00 0.00 82 1019.2
20190616080320 66 279 16.0 26.0 0.00 0.00 0.00 82 1019.3
20190616080158 66 265 17.0 26.0 0.00 0.00 0.00 82 1019.1
20190616080052 66 279 18.0 26.0 0.00 0.00 0.00 82 1019.3
20190616075947 66 274 19.0 25.0 0.00 0.00 0.00 82 1019.2
20190616075841 66 254 17.0 26.0 0.00 0.00 0.00 83 1019.2
20190616075738 66 268 17.0 26.0 0.00 0.00 0.00 82 1019.2
20190616075605 66 260 16.0 25.0 0.00 0.00 0.00 83 1019.2
20190616075500 65 251 18.0 25.0 0.00 0.00 0.00 82 1019.2
20190616075353 65 263 17.0 25.0 0.00 0.00 0.00 83 1019.1
20190616075250 65 271 15.0 27.0 0.00 0.00 0.00 83 1019.2
20190616075142 65 272 18.0 27.0 0.00 0.00 0.00 83 1019.2
20190616075038 65 264 20.0 27.0 0.00 0.00 0.00 82 1019.2
20190616074916 65 284 18.0 27.0 0.00 0.00 0.00 83 1019.2
20190616074742 65 270 17.0 27.0 0.00 0.00 0.00 83 1019.2
20190616074636 65 233 16.0 27.0 0.00 0.00 0.00 83 1019.2
20190616074528 65 225 18.0 27.0 0.00 0.00 0.00 83 1019.1
20190616074423 65 255 17.0 27.0 0.00 0.00 0.00 84 1019.2
20190616074304 65 267 15.0 28.0 0.00 0.00 0.00 84 1019.2
20190616074157 65 272 16.0 28.0 0.00 0.00 0.00 84 1019.1
20190616074053 65 261 16.0 28.0 0.00 0.00 0.00 84 1019.1
20190616073947 65 263 16.0 28.0 0.00 0.00 0.00 84 1019.1
20190616073842 65 252 17.0 28.0 0.00 0.00 0.00 84 1019.0
20190616073739 65 252 18.0 28.0 0.00 0.00 0.00 84 1019.1
20190616073618 65 281 20.0 28.0 0.00 0.00 0.00 84 1019.0
20190616073514 65 263 19.0 28.0 0.00 0.00 0.00 84 1019.0
20190616073409 65 263 18.0 23.0 0.00 0.00 0.00 84 1019.0
20190616073255 65 266 17.0 24.0 0.00 0.00 0.00 84 1018.9
20190616073150 65 272 17.0 24.0 0.00 0.00 0.00 84 1019.0
20190616073048 65 269 16.0 25.0 0.00 0.00 0.00 84 1019.0
20190616072927 65 263 16.0 25.0 0.00 0.00 0.00 84 1018.9
20190616072823 65 273 16.0 25.0 0.00 0.00 0.00 84 1019.0
20190616072700 65 257 17.0 25.0 0.00 0.00 0.00 84 1018.9
20190616072546 65 259 17.0 25.0 0.00 0.00 0.00 84 1019.0
20190616072243 65 281 19.0 25.0 0.00 0.00 0.00 84 1018.9
20190616072142 65 275 18.0 24.0 0.00 0.00 0.00 84 1018.9
20190616072038 65 268 15.0 24.0 0.00 0.00 0.00 84 1018.9
20190616071930 65 268 13.0 24.0 0.00 0.00 0.00 84 1018.9
20190616071826 65 270 14.0 24.0 0.00 0.00 0.00 85 1018.9
20190616071703 65 260 15.0 24.0 0.00 0.00 0.00 84 1019.0
20190616071557 65 278 16.0 24.0 0.00 0.00 0.00 84 1019.0
20190616071544 64 261 16.0 24.0 0.00 0.00 0.00 84 1017.4
20190616071424 65 269 18.0 24.0 0.00 0.00 0.00 84 1018.9
20190616071320 65 268 16.0 25.0 0.00 0.00 0.00 84 1018.9
20190616071212 65 273 15.0 26.0 0.00 0.00 0.00 84 1018.9
20190616071111 65 274 16.0 26.0 0.00 0.00 0.00 84 1018.9
20190616071007 65 259 17.0 26.0 0.00 0.00 0.00 84 1018.9
20190616070901 65 274 18.0 26.0 0.00 0.00 0.00 84 1018.8
20190616070741 65 269 18.0 26.0 0.00 0.00 0.00 84 1018.9
20190616070609 65 256 17.0 26.0 0.00 0.00 0.00 84 1018.8
20190616070506 65 259 19.0 26.0 0.00 0.00 0.00 83 1018.8
20190616070358 65 265 18.0 26.0 0.00 0.00 0.00 83 1018.7
20190616070256 65 272 16.0 24.0 0.00 0.00 0.00 84 1018.8
20190616070135 65 264 17.0 24.0 0.00 0.00 0.00 84 1018.7
20190616070032 65 253 16.0 28.0 0.00 0.00 0.00 84 1018.7
20190616065925 65 271 16.0 28.0 0.00 0.00 0.00 84 1018.6
20190616065819 65 265 18.0 28.0 0.00 0.00 0.00 83 1018.6
20190616065716 65 280 17.0 28.0 0.00 0.00 0.00 83 1018.6
20190616065539 65 272 18.0 28.0 0.00 0.00 0.00 83 1018.6
20190616065417 65 251 20.0 28.0 0.00 0.00 0.00 83 1018.7
20190616065313 65 277 20.0 29.0 0.00 0.00 0.00 83 1018.6
20190616065206 65 263 19.0 29.0 0.00 0.00 0.00 83 1018.6
20190616065100 65 273 19.0 29.0 0.00 0.00 0.00 83 1018.6
20190616064959 65 261 20.0 29.0 0.00 0.00 0.00 82 1018.5
20190616064852 66 270 19.0 29.0 0.00 0.00 0.00 82 1018.6
20190616064751 66 272 18.0 29.0 0.00 0.00 0.00 82 1018.5
20190616064614 66 257 20.0 30.0 0.00 0.00 0.00 82 1018.5
20190616064510 66 265 21.0 30.0 0.00 0.00 0.00 82 1018.4
20190616064403 66 263 17.0 30.0 0.00 0.00 0.00 82 1018.5
20190616064300 66 282 15.0 30.0 0.00 0.00 0.00 82 1018.5
20190616064154 66 294 14.0 30.0 0.00 0.00 0.00 82 1018.4
20190616064034 66 279 17.0 30.0 0.00 0.00 0.00 82 1018.4
20190616063930 66 284 19.0 30.0 0.00 0.00 0.00 81 1018.5
20190616063828 66 278 21.0 30.0 0.00 0.00 0.00 81 1018.5
20190616063724 66 270 20.0 30.0 0.00 0.00 0.00 81 1018.4
20190616063550 66 299 17.0 25.0 0.00 0.00 0.00 81 1018.4
20190616063447 66 276 17.0 25.0 0.00 0.00 0.00 81 1018.4
20190616063212 66 249 17.0 28.0 0.00 0.00 0.00 81 1018.4
20190616063111 66 276 15.0 28.0 0.00 0.00 0.00 81 1018.4
20190616063010 66 275 14.0 28.0 0.00 0.00 0.00 81 1018.3
20190616062904 66 270 14.0 28.0 0.00 0.00 0.00 81 1018.4
20190616062800 66 252 16.0 28.0 0.00 0.00 0.00 81 1018.3
20190616062640 66 269 18.0 28.0 0.00 0.00 0.00 80 1018.4
20190616062526 66 276 17.0 28.0 0.00 0.00 0.00 81 1018.3
20190616062405 66 261 19.0 28.0 0.00 0.00 0.00 80 1018.2
20190616062304 67 292 18.0 26.0 0.00 0.00 0.00 81 1018.1
20190616062129 67 270 18.0 25.0 0.00 0.00 0.00 80 1018.2
20190616062006 67 272 15.0 25.0 0.00 0.00 0.00 81 1018.2
20190616061900 67 271 16.0 25.0 0.00 0.00 0.00 81 1018.2
20190616061756 67 265 15.0 25.0 0.00 0.00 0.00 81 1018.1
20190616061655 67 268 14.0 27.0 0.00 0.00 0.00 81 1018.1
20190616061546 67 255 16.0 27.0 0.00 0.00 0.00 81 1018.1
20190616061440 67 264 15.0 27.0 0.00 0.00 0.00 81 1018.0
20190616061308 67 257 18.0 28.0 0.00 0.00 0.00 81 1018.0
20190616061201 66 276 17.0 28.0 0.00 0.00 0.00 81 1018.0
20190616061057 66 278 18.0 29.0 0.00 0.00 0.00 81 1017.9
20190616060955 66 241 18.0 29.0 0.00 0.00 0.00 81 1018.0
20190616060851 66 276 17.0 29.0 0.00 0.00 0.00 81 1017.9
20190616060747 66 251 18.0 29.0 0.00 0.00 0.00 81 1017.9
20190616060630 66 274 20.0 29.0 0.00 0.00 0.00 81 1017.8
20190616060525 66 265 23.0 29.0 0.00 0.00 0.00 81 1017.8
20190616060417 66 261 22.0 29.0 0.00 0.00 0.00 81 1017.9
20190616060312 66 270 21.0 29.0 0.00 0.00 0.00 81 1017.8
20190616060157 66 270 20.0 29.0 0.00 0.00 0.00 81 1017.8
20190616060055 66 261 20.0 28.0 0.00 0.00 0.00 81 1017.7
20190616055804 66 277 20.0 28.0 0.00 0.00 0.00 81 1017.7
20190616055703 66 274 22.0 28.0 0.00 0.00 0.00 81 1017.7
20190616055601 66 251 20.0 29.0 0.00 0.00 0.00 81 1017.7
20190616055456 66 261 17.0 29.0 0.00 0.00 0.00 81 1017.7
20190616055349 66 253 17.0 29.0 0.00 0.00 0.00 81 1017.7
20190616055234 66 258 19.0 29.0 0.00 0.00 0.00 81 1017.7
20190616055114 66 276 21.0 29.0 0.00 0.00 0.00 81 1017.6
20190616055011 67 265 20.0 27.0 0.00 0.00 0.00 81 1017.6
20190616054906 67 258 17.0 27.0 0.00 0.00 0.00 81 1017.5
20190616054802 66 278 18.0 27.0 0.00 0.00 0.00 81 1017.6
20190616054638 66 271 17.0 26.0 0.00 0.00 0.00 82 1017.6
20190616054504 66 282 20.0 26.0 0.00 0.00 0.00 81 1017.6
20190616054357 66 268 20.0 26.0 0.00 0.00 0.00 81 1017.6
20190616054123 66 278 17.0 24.0 0.00 0.00 0.00 81 1017.6
20190616054020 66 276 18.0 24.0 0.00 0.00 0.00 81 1017.5
20190616053912 66 263 15.0 24.0 0.00 0.00 0.00 81 1017.5
20190616053808 66 272 15.0 24.0 0.00 0.00 0.00 81 1017.5
20190616053636 66 257 18.0 28.0 0.00 0.00 0.00 81 1017.5
20190616053511 66 273 17.0 28.0 0.00 0.00 0.00 82 1017.5
20190616053404 66 259 19.0 28.0 0.00 0.00 0.00 82 1017.6
20190616053241 66 272 18.0 28.0 0.00 0.00 0.00 82 1017.5
20190616053136 66 265 17.0 28.0 0.00 0.00 0.00 81 1017.5
20190616053125 66 271 16.0 28.0 0.00 0.00 0.00 82 1016.0
20190616053007 66 283 16.0 28.0 0.00 0.00 0.00 81 1017.4
20190616052901 66 275 15.0 28.0 0.00 0.00 0.00 82 1017.4
20190616052758 66 287 15.0 27.0 0.00 0.00 0.00 82 1017.4
20190616052651 66 235 18.0 27.0 0.00 0.00 0.00 81 1017.4
20190616052410 66 234 16.0 24.0 0.00 0.00 0.00 81 1017.4
20190616052253 66 255 16.0 26.0 0.00 0.00 0.00 82 1017.4
20190616052146 66 256 18.0 26.0 0.00 0.00 0.00 81 1017.4
20190616052016 66 280 17.0 26.0 0.00 0.00 0.00 82 1017.4
20190616051909 66 278 16.0 26.0 0.00 0.00 0.00 82 1017.4
20190616051805 66 260 17.0 26.0 0.00 0.00 0.00 82 1017.4
20190616051703 66 276 17.0 26.0 0.00 0.00 0.00 81 1017.3
20190616051546 66 264 17.0 26.0 0.00 0.00 0.00 81 1017.3
20190616051440 66 237 17.0 26.0 0.00 0.00 0.00 82 1017.3
20190616051318 66 255 19.0 26.0 0.00 0.00 0.00 81 1017.3
20190616051213 67 277 18.0 26.0 0.00 0.00 0.00 81 1017.1
20190616051112 67 275 18.0 25.0 0.00 0.00 0.00 81 1017.2
20190616051039 66 289 17.0 25.0 0.00 0.00 0.00 82 1015.6
20190616050937 67 276 18.0 25.0 0.00 0.00 0.00 82 1017.2
20190616050836 67 236 18.0 26.0 0.00 0.00 0.00 82 1017.1
20190616050732 67 265 18.0 26.0 0.00 0.00 0.00 82 1017.1
20190616050611 67 280 17.0 26.0 0.00 0.00 0.00 82 1017.1
20190616050446 67 264 17.0 26.0 0.00 0.00 0.00 82 1017.2
20190616050316 67 269 15.0 26.0 0.00 0.00 0.00 82 1017.1
20190616050150 67 282 15.0 26.0 0.00 0.00 0.00 82 1017.1
20190616050025 67 243 20.0 26.0 0.00 0.00 0.00 82 1017.0
20190616045918 67 268 18.0 25.0 0.00 0.00 0.00 82 1017.1
20190616045813 67 259 17.0 25.0 0.00 0.00 0.00 83 1017.1
20190616045707 67 270 16.0 24.0 0.00 0.00 0.00 83 1016.9
20190616045548 67 259 18.0 24.0 0.00 0.00 0.00 83 1016.9
20190616045521 66 273 17.0 24.0 0.00 0.00 0.00 83 1015.4
20190616045428 67 290 16.0 24.0 0.00 0.00 0.00 83 1017.0
20190616045323 67 286 14.0 23.0 0.00 0.00 0.00 84 1016.9
20190616045219 67 259 14.0 23.0 0.00 0.00 0.00 84 1016.9
20190616045058 67 278 17.0 24.0 0.00 0.00 0.00 84 1016.9
20190616044936 67 264 16.0 24.0 0.00 0.00 0.00 84 1016.9
20190616044805 67 272 15.0 24.0 0.00 0.00 0.00 84 1016.8
20190616044642 67 249 16.0 24.0 0.00 0.00 0.00 84 1016.8
20190616044513 67 277 18.0 24.0 0.00 0.00 0.00 84 1016.8
20190616044348 67 280 16.0 24.0 0.00 0.00 0.00 84 1016.8
20190616044231 67 270 13.0 24.0 0.00 0.00 0.00 85 1016.8
20190616044106 67 275 14.0 24.0 0.00 0.00 0.00 85 1016.8
20190616043937 67 266 14.0 24.0 0.00 0.00 0.00 85 1016.7
20190616043811 67 277 15.0 24.0 0.00 0.00 0.00 86 1016.7
20190616043655 67 267 13.0 24.0 0.00 0.00 0.00 86 1016.7
20190616043518 67 274 17.0 24.0 0.00 0.00 0.00 86 1016.7
20190616043216 66 271 16.0 23.0 0.00 0.00 0.00 87 1016.6
20190616043045 66 264 16.0 23.0 0.00 0.00 0.00 87 1016.6
20190616042924 66 253 14.0 25.0 0.00 0.00 0.00 87 1016.6
20190616042759 66 265 14.0 25.0 0.00 0.00 0.00 88 1016.6
20190616042627 66 260 13.0 25.0 0.00 0.00 0.00 88 1016.6
20190616042445 66 235 15.0 25.0 0.00 0.00 0.00 88 1016.6
20190616042304 66 255 15.0 25.0 0.00 0.00 0.00 88 1016.6
20190616042158 66 280 16.0 25.0 0.00 0.00 0.00 88 1016.5
20190616042027 66 275 14.0 23.0 0.00 0.00 0.00 89 1016.6
20190616041901 66 266 14.0 22.0 0.00 0.00 0.00 89 1016.5
20190616041738 65 262 13.0 22.0 0.00 0.00 0.00 89 1016.5
20190616041617 65 279 14.0 22.0 0.00 0.00 0.00 89 1016.4
20190616041609 65 265 14.0 22.0 0.00 0.00 0.00 89 1014.9
20190616041443 65 270 15.0 22.0 0.00 0.00 0.00 89 1016.4
20190616041335 65 259 16.0 22.0 0.00 0.00 0.00 90 1016.5
20190616041207 65 247 15.0 18.0 0.00 0.00 0.00 90 1016.5
20190616041045 65 257 13.0 18.0 0.00 0.00 0.00 90 1016.4
20190616041010 65 259 12.0 17.0 0.00 0.00 0.00 90 1014.9
20190616040908 65 272 12.0 17.0 0.00 0.00 0.00 91 1016.5
20190616040741 65 255 12.0 19.0 0.00 0.00 0.00 91 1016.5
20190616040633 65 240 13.0 19.0 0.00 0.00 0.00 91 1016.5
20190616040510 65 269 14.0 19.0 0.00 0.00 0.00 91 1016.5
20190616040334 65 269 14.0 19.0 0.00 0.00 0.00 91 1016.5
20190616040229 65 261 13.0 19.0 0.00 0.00 0.00 91 1016.5
20190616035957 65 259 13.0 19.0 0.00 0.00 0.00 91 1016.5
20190616035849 65 234 13.0 19.0 0.00 0.00 0.00 92 1016.5
20190616035744 65 236 13.0 19.0 0.00 0.00 0.00 92 1016.5
20190616035641 65 272 12.0 17.0 0.00 0.00 0.00 92 1016.5
20190616035521 64 252 12.0 17.0 0.00 0.00 0.00 92 1016.4
20190616035341 64 260 12.0 16.0 0.00 0.00 0.00 92 1016.4
20190616035238 64 245 11.0 16.0 0.00 0.00 0.00 92 1016.3
20190616035127 64 265 11.0 16.0 0.00 0.00 0.00 92 1016.4
20190616035022 64 268 10.0 16.0 0.00 0.00 0.00 92 1016.4
20190616034901 64 236 11.0 16.0 0.00 0.00 0.00 92 1016.4
20190616034757 64 270 12.0 16.0 0.00 0.00 0.00 93 1016.4
20190616034654 64 264 10.0 15.0 0.00 0.00 0.00 93 1016.4
20190616034551 64 257 10.0 14.0 0.00 0.00 0.00 93 1016.4
20190616034416 64 265 9.0 14.0 0.00 0.00 0.00 93 1016.3
20190616034244 64 253 10.0 14.0 0.00 0.00 0.00 93 1016.3
20190616034133 63 278 9.0 12.0 0.00 0.00 0.00 93 1016.4
20190616034031 63 258 9.0 11.0 0.00 0.00 0.00 93 1016.3
20190616033923 63 250 9.0 11.0 0.00 0.00 0.00 93 1016.3
20190616033818 63 259 8.0 11.0 0.00 0.00 0.00 92 1016.4
20190616033716 63 263 7.0 10.0 0.00 0.00 0.00 92 1016.4
20190616033558 63 247 7.0 10.0 0.00 0.00 0.00 92 1016.3
20190616033529 63 273 7.0 10.0 0.00 0.00 0.00 92 1014.9
20190616033422 63 265 8.0 10.0 0.00 0.00 0.00 92 1016.3
20190616033315 63 252 8.0 10.0 0.00 0.00 0.00 92 1016.3
20190616033209 63 270 8.0 10.0 0.00 0.00 0.00 92 1016.3
20190616033047 63 257 8.0 12.0 0.00 0.00 0.00 92 1016.3
20190616032926 63 255 7.0 12.0 0.00 0.00 0.00 92 1016.3
20190616032822 63 260 8.0 12.0 0.00 0.00 0.00 92 1016.3
20190616032718 63 259 7.0 12.0 0.00 0.00 0.00 92 1016.2
20190616032552 63 254 8.0 12.0 0.00 0.00 0.00 92 1016.2
20190616032407 63 251 9.0 12.0 0.00 0.00 0.00 92 1016.2
20190616032301 63 240 8.0 12.0 0.00 0.00 0.00 92 1016.2
20190616032139 63 261 8.0 11.0 0.00 0.00 0.00 92 1016.2
20190616032037 63 246 8.0 11.0 0.00 0.00 0.00 92 1016.2
20190616032009 62 250 7.0 11.0 0.00 0.00 0.00 92 1014.6
20190616031918 63 257 7.0 11.0 0.00 0.00 0.00 92 1016.1
20190616031816 63 258 7.0 11.0 0.00 0.00 0.00 92 1016.1
20190616031709 63 266 8.0 11.0 0.00 0.00 0.00 92 1016.1
20190616031550 63 259 7.0 10.0 0.00 0.00 0.00 92 1016.2
20190616031418 63 248 7.0 10.0 0.00 0.00 0.00 93 1016.2
20190616031311 63 246 6.0 9.0 0.00 0.00 0.00 93 1016.2
20190616031206 63 245 7.0 9.0 0.00 0.00 0.00 93 1016.1
20190616030903 63 244 5.0 8.0 0.00 0.00 0.00 92 1016.1
20190616030743 63 259 5.0 8.0 0.00 0.00 0.00 92 1016.1
20190616030640 63 259 6.0 8.0 0.00 0.00 0.00 91 1016.1
20190616030536 63 252 5.0 8.0 0.00 0.00 0.00 91 1016.0
20190616030509 62 245 4.0 8.0 0.00 0.00 0.00 91 1014.5
20190616030401 63 253 4.0 8.0 0.00 0.00 0.00 91 1016.1
20190616030252 63 255 5.0 8.0 0.00 0.00 0.00 91 1016.0
20190616030131 63 258 5.0 8.0 0.00 0.00 0.00 90 1016.0
20190616030031 63 261 5.0 7.0 0.00 0.00 0.00 90 1016.0
20190616025926 63 261 4.0 7.0 0.00 0.00 0.00 90 1015.9
20190616025823 63 261 4.0 7.0 0.00 0.00 0.00 90 1015.9
20190616025709 63 269 5.0 7.0 0.00 0.00 0.00 90 1015.9
20190616025607 63 265 5.0 8.0 0.00 0.00 0.00 90 1015.9
20190616025504 63 275 5.0 8.0 0.00 0.00 0.00 89 1015.9
20190616025337 63 288 5.0 8.0 0.00 0.00 0.00 89 1015.8
20190616025233 63 270 5.0 8.0 0.00 0.00 0.00 89 1015.7
20190616025127 63 273 5.0 8.0 0.00 0.00 0.00 89 1015.7
20190616025027 63 271 5.0 8.0 0.00 0.00 0.00 89 1015.6
20190616024922 63 270 6.0 9.0 0.00 0.00 0.00 89 1015.6
20190616024817 64 270 6.0 9.0 0.00 0.00 0.00 89 1015.5
20190616024718 64 276 6.0 9.0 0.00 0.00 0.00 89 1015.5
20190616024616 64 275 6.0 10.0 0.00 0.00 0.00 89 1015.4
20190616024516 64 273 6.0 10.0 0.00 0.00 0.00 89 1015.5
20190616024337 64 276 6.0 10.0 0.00 0.00 0.00 89 1015.4
20190616024230 64 273 6.0 10.0 0.00 0.00 0.00 89 1015.3
20190616024127 64 264 7.0 10.0 0.00 0.00 0.00 89 1015.3
20190616024028 64 268 7.0 10.0 0.00 0.00 0.00 89 1015.2
20190616023925 64 255 8.0 10.0 0.00 0.00 0.00 89 1015.2
20190616023823 64 281 8.0 10.0 0.00 0.00 0.00 89 1015.2
20190616023719 64 278 7.0 8.0 0.00 0.00 0.00 90 1015.1
20190616023620 64 278 6.0 8.0 0.00 0.00 0.00 90 1015.1
20190616023517 63 288 5.0 8.0 0.00 0.00 0.00 90 1015.1
20190616023344 64 286 4.0 6.0 0.00 0.00 0.00 90 1015.0
20190616023240 63 268 4.0 6.0 0.00 0.00 0.00 90 1015.0
20190616023135 63 278 4.0 6.0 0.00 0.00 0.00 90 1015.0
20190616023034 63 263 3.0 6.0 0.00 0.00 0.00 90 1014.9
20190616022929 63 272 3.0 6.0 0.00 0.00 0.00 90 1014.9
20190616022828 63 272 3.0 7.0 0.00 0.00 0.00 90 1014.9
20190616022732 63 272 3.0 8.0 0.00 0.00 0.00 90 1014.9
20190616022631 63 271 3.0 8.0 0.00 0.00 0.00 90 1014.9
20190616022510 63 271 4.0 8.0 0.00 0.00 0.00 90 1014.9
20190616022351 63 270 4.0 8.0 0.00 0.00 0.00 90 1014.9
20190616022247 63 270 5.0 8.0 0.00 0.00 0.00 90 1014.9
20190616022141 63 270 6.0 8.0 0.00 0.00 0.00 91 1014.9
20190616022036 63 270 6.0 8.0 0.00 0.00 0.00 91 1014.9
20190616021934 63 268 6.0 8.0 0.00 0.00 0.00 91 1014.9
20190616021831 63 274 6.0 7.0 0.00 0.00 0.00 91 1014.9
20190616021728 63 280 5.0 7.0 0.00 0.00 0.00 91 1014.9
20190616021616 63 283 4.0 7.0 0.00 0.00 0.00 91 1014.9
20190616021515 63 282 4.0 7.0 0.00 0.00 0.00 91 1014.9
20190616021410 63 280 4.0 7.0 0.00 0.00 0.00 92 1014.9
20190616021310 63 283 5.0 7.0 0.00 0.00 0.00 92 1014.9
20190616021204 63 282 5.0 7.0 0.00 0.00 0.00 92 1014.8
20190616021047 62 280 4.0 7.0 0.00 0.00 0.00 92 1014.8
20190616020903 62 279 4.0 6.0 0.00 0.00 0.00 92 1014.8
20190616020707 62 278 3.0 6.0 0.00 0.00 0.00 92 1014.7
20190616020529 62 278 3.0 6.0 0.00 0.00 0.00 92 1014.8
20190616020345 62 276 2.0 6.0 0.00 0.00 0.00 92 1014.8
20190616020013 62 275 3.0 6.0 0.00 0.00 0.00 92 1014.7
20190616015845 62 272 3.0 6.0 0.00 0.00 0.00 92 1014.7
20190616015710 62 272 4.0 6.0 0.00 0.00 0.00 92 1014.6
20190616015533 62 272 4.0 6.0 0.00 0.00 0.00 93 1014.6
20190616015508 62 271 3.0 6.0 0.00 0.00 0.00 93 1013.0
20190616015338 62 276 4.0 6.0 0.00 0.00 0.00 93 1014.6
20190616015200 62 277 4.0 6.0 0.00 0.00 0.00 92 1014.6
20190616015051 62 277 4.0 6.0 0.00 0.00 0.00 92 1014.6
20190616015013 61 274 3.0 6.0 0.00 0.00 0.00 92 1013.0
20190616014914 62 283 3.0 4.0 0.00 0.00 0.00 91 1014.6
20190616014806 62 284 2.0 4.0 0.00 0.00 0.00 91 1014.6
20190616014701 62 278 1.0 3.0 0.00 0.00 0.00 91 1014.6
20190616014558 62 278 1.0 3.0 0.00 0.00 0.00 91 1014.6
20190616014456 62 158 2.0 2.0 0.00 0.00 0.00 91 1014.6
20190616014333 62 154 1.0 2.0 0.00 0.00 0.00 91 1014.6
20190616014232 62 154 1.0 2.0 0.00 0.00 0.00 91 1014.6
20190616014129 62 154 1.0 2.0 0.00 0.00 0.00 91 1014.6
20190616014017 62 154 1.0 2.0 0.00 0.00 0.00 91 1014.6
20190616013914 62 152 0.0 1.0 0.00 0.00 0.00 90 1014.6
20190616013815 62 152 0.0 1.0 0.00 0.00 0.00 90 1014.6
20190616013711 62 152 0.0 0.0 0.00 0.00 0.00 90 1014.6
20190616013615 62 152 0.0 0.0 0.00 0.00 0.00 90 1014.6
20190616013514 62 152 0.0 0.0 0.00 0.00 0.00 90 1014.6
20190616013412 62 152 0.0 0.0 0.00 0.00 0.00 90 1014.6
20190616013305 62 152 0.0 0.0 0.00 0.00 0.00 90 1014.6
20190616013202 62 152 0.0 0.0 0.00 0.00 0.00 90 1014.5
20190616013053 62 152 0.0 1.0 0.00 0.00 0.00 90 1014.6
20190616012951 62 152 0.0 1.0 0.00 0.00 0.00 90 1014.6
20190616012851 62 152 0.0 1.0 0.00 0.00 0.00 90 1014.6
20190616012749 62 152 0.0 1.0 0.00 0.00 0.00 90 1014.6
20190616012645 62 152 0.0 1.0 0.00 0.00 0.00 90 1014.6
20190616012537 62 152 0.0 1.0 0.00 0.00 0.00 90 1014.7
20190616012417 62 152 0.0 1.0 0.00 0.00 0.00 90 1014.7
20190616012249 62 152 0.0 1.0 0.00 0.00 0.00 89 1014.7
20190616012147 62 152 0.0 0.0 0.00 0.00 0.00 89 1014.8
20190616012049 62 152 0.0 0.0 0.00 0.00 0.00 89 1014.7
20190616011948 62 152 0.0 0.0 0.00 0.00 0.00 89 1014.7
20190616011847 62 152 0.0 0.0 0.00 0.00 0.00 89 1014.7
20190616011745 62 152 0.0 0.0 0.00 0.00 0.00 89 1014.7
20190616011644 62 152 0.0 0.0 0.00 0.00 0.00 89 1014.7
20190616011548 62 152 0.0 0.0 0.00 0.00 0.00 90 1014.6
20190616011537 62 152 0.0 0.0 0.00 0.00 0.00 90 1013.0
20190616011431 63 152 0.0 0.0 0.00 0.00 0.00 90 1014.6
20190616011331 63 152 0.0 0.0 0.00 0.00 0.00 90 1014.6
20190616011230 63 152 0.0 0.0 0.00 0.00 0.00 90 1014.6
20190616011129 63 152 0.0 0.0 0.00 0.00 0.00 90 1014.6
20190616011029 63 152 0.0 0.0 0.00 0.00 0.00 90 1014.5
20190616010927 63 152 0.0 1.0 0.00 0.00 0.00 90 1014.6
20190616010827 63 152 0.0 2.0 0.00 0.00 0.00 90 1014.6
20190616010726 63 152 0.0 2.0 0.00 0.00 0.00 90 1014.5
20190616010625 63 152 0.0 2.0 0.00 0.00 0.00 90 1014.5
20190616010517 63 152 0.0 2.0 0.00 0.00 0.00 90 1014.6
20190616010412 63 152 0.0 2.0 0.00 0.00 0.00 90 1014.6
20190616010253 63 152 0.0 2.0 0.00 0.00 0.00 90 1014.6
20190616010149 63 152 0.0 2.0 0.00 0.00 0.00 90 1014.5
20190616010049 63 152 1.0 2.0 0.00 0.00 0.00 90 1014.5
20190616005949 63 152 1.0 2.0 0.00 0.00 0.00 90 1014.5
20190616005845 63 152 1.0 2.0 0.00 0.00 0.00 90 1014.5
20190616005734 63 152 1.0 2.0 0.00 0.00 0.00 90 1014.5
20190616005631 63 152 1.0 2.0 0.00 0.00 0.00 89 1014.5
20190616005534 63 152 1.0 2.0 0.00 0.00 0.00 89 1014.4
20190616005432 63 152 1.0 1.0 0.00 0.00 0.00 89 1014.5
20190616005330 63 152 0.0 1.0 0.00 0.00 0.00 89 1014.5
20190616005224 63 152 0.0 1.0 0.00 0.00 0.00 89 1014.5
20190616005124 63 152 0.0 1.0 0.00 0.00 0.00 89 1014.5
20190616005022 63 152 0.0 1.0 0.00 0.00 0.00 89 1014.6
20190616004924 63 152 0.0 1.0 0.00 0.00 0.00 89 1014.6
20190616004811 63 152 0.0 1.0 0.00 0.00 0.00 89 1014.6
20190616004709 63 152 0.0 1.0 0.00 0.00 0.00 89 1014.6
20190616004609 63 152 0.0 1.0 0.00 0.00 0.00 89 1014.6
20190616004508 63 152 0.0 2.0 0.00 0.00 0.00 89 1014.5
20190616004404 63 152 0.0 3.0 0.00 0.00 0.00 89 1014.6
20190616004244 63 152 0.0 3.0 0.00 0.00 0.00 89 1014.5
20190616004132 63 152 0.0 3.0 0.00 0.00 0.00 89 1014.5
20190616004031 63 152 0.0 3.0 0.00 0.00 0.00 89 1014.5
20190616003926 63 152 0.0 3.0 0.00 0.00 0.00 89 1014.5
20190616003824 63 152 1.0 3.0 0.00 0.00 0.00 89 1014.5
20190616003722 63 152 1.0 3.0 0.00 0.00 0.00 88 1014.5
20190616003443 63 152 1.0 2.0 0.00 0.00 0.00 87 1014.6
20190616003322 64 152 0.0 1.0 0.00 0.00 0.00 87 1014.5
20190616003217 64 152 0.0 1.0 0.00 0.00 0.00 87 1014.5
20190616003116 64 152 1.0 1.0 0.00 0.00 0.00 87 1014.5
20190616003014 64 152 0.0 1.0 0.00 0.00 0.00 87 1014.5
20190616002910 64 152 0.0 0.0 0.00 0.00 0.00 87 1014.5
20190616002805 64 152 0.0 0.0 0.00 0.00 0.00 87 1014.5
20190616002706 64 152 0.0 0.0 0.00 0.00 0.00 87 1014.6
20190616002606 64 152 0.0 0.0 0.00 0.00 0.00 87 1014.6
20190616002457 64 152 0.0 0.0 0.00 0.00 0.00 87 1014.6
20190616002339 64 152 0.0 0.0 0.00 0.00 0.00 87 1014.6
20190616002233 64 152 0.0 0.0 0.00 0.00 0.00 87 1014.6
20190616002133 64 152 0.0 0.0 0.00 0.00 0.00 87 1014.6
20190616002101 63 152 0.0 0.0 0.00 0.00 0.00 87 1013.0
20190616001850 64 152 0.0 1.0 0.00 0.00 0.00 87 1014.6
20190616001748 64 152 0.0 2.0 0.00 0.00 0.00 87 1014.6
20190616001647 64 152 0.0 2.0 0.00 0.00 0.00 87 1014.7
20190616001547 64 152 0.0 2.0 0.00 0.00 0.00 87 1014.6
20190616001446 64 152 0.0 2.0 0.00 0.00 0.00 87 1014.7
20190616001348 64 152 0.0 2.0 0.00 0.00 0.00 87 1014.7
20190616001246 64 152 0.0 2.0 0.00 0.00 0.00 87 1014.7
20190616001140 64 152 0.0 2.0 0.00 0.00 0.00 87 1014.7
20190616001029 64 152 1.0 2.0 0.00 0.00 0.00 87 1014.8
20190616000926 64 152 1.0 2.0 0.00 0.00 0.00 87 1014.7
20190616000822 64 152 1.0 2.0 0.00 0.00 0.00 87 1014.7
20190616000719 64 152 1.0 2.0 0.00 0.00 0.00 87 1014.7
20190616000619 65 152 1.0 2.0 0.00 0.00 0.00 87 1014.7
20190616000519 65 151 0.0 2.0 0.00 0.00 0.00 87 1014.7
20190616000414 65 151 0.0 2.0 0.00 0.00 0.00 87 1014.7
20190616000243 65 151 0.0 2.0 0.00 0.00 0.00 87 1014.7
20190616000136 65 151 0.0 2.0 0.00 0.00 0.00 87 1014.7
20190616000036 65 151 0.0 3.0 0.00 0.00 0.00 87 1014.6
20190615235934 65 151 0.0 3.0 0.00 0.00 0.00 87 1014.6
20190615235833 65 151 1.0 3.0 0.00 0.00 0.00 87 1014.6
20190615235733 65 151 1.0 3.0 0.00 0.00 0.00 87 1014.6
20190615235631 65 151 1.0 4.0 0.00 0.00 0.00 87 1014.6
20190615235521 65 151 1.0 4.0 0.00 0.00 0.00 87 1014.6
20190615235417 65 151 2.0 4.0 0.00 0.00 0.00 88 1014.6
20190615235300 65 151 2.0 4.0 0.00 0.00 0.00 87 1014.6
20190615235157 65 151 2.0 4.0 0.00 0.00 0.00 87 1014.6
20190615235053 65 151 2.0 4.0 0.00 0.00 0.00 87 1014.6
20190615234952 65 151 2.0 4.0 0.00 0.00 0.00 87 1014.6
20190615234848 65 151 2.0 4.0 0.00 0.00 0.00 87 1014.5
20190615234736 65 244 1.0 3.0 0.00 0.00 0.00 88 1014.5
20190615234640 65 244 1.0 3.0 0.00 0.00 0.00 88 1014.5
20190615234540 65 244 1.0 3.0 0.00 0.00 0.00 88 1014.5
20190615234440 65 244 1.0 3.0 0.00 0.00 0.00 88 1014.5
20190615234337 65 244 2.0 3.0 0.00 0.00 0.00 87 1014.5
20190615234212 65 244 2.0 3.0 0.00 0.00 0.00 87 1014.6
20190615234111 65 244 2.0 3.0 0.00 0.00 0.00 86 1014.5
20190615234052 64 244 1.0 3.0 0.00 0.00 0.00 86 1012.9
20190615234002 65 244 1.0 2.0 0.00 0.00 0.00 86 1014.5
20190615233901 65 244 0.0 2.0 0.00 0.00 0.00 86 1014.5
20190615233803 65 244 0.0 2.0 0.00 0.00 0.00 86 1014.4
20190615233700 65 244 0.0 2.0 0.00 0.00 0.00 86 1014.4
20190615233601 65 244 0.0 2.0 0.00 0.00 0.00 85 1014.4
20190615233458 65 244 0.0 2.0 0.00 0.00 0.00 85 1014.4
20190615233354 65 244 0.0 2.0 0.00 0.00 0.00 85 1014.4
20190615233258 65 244 0.0 2.0 0.00 0.00 0.00 86 1014.4
20190615233157 65 244 1.0 2.0 0.00 0.00 0.00 85 1014.5
20190615233043 65 244 0.0 1.0 0.00 0.00 0.00 85 1014.4
20190615232945 65 244 0.0 1.0 0.00 0.00 0.00 85 1014.5
20190615232842 65 244 0.0 1.0 0.00 0.00 0.00 84 1014.5
20190615232741 65 244 0.0 1.0 0.00 0.00 0.00 84 1014.5
20190615232642 65 244 0.0 1.0 0.00 0.00 0.00 84 1014.5
20190615232533 65 244 0.0 1.0 0.00 0.00 0.00 84 1014.6
20190615232413 65 244 0.0 1.0 0.00 0.00 0.00 84 1014.6
20190615232241 65 244 0.0 1.0 0.00 0.00 0.00 84 1014.6
20190615232136 65 244 0.0 1.0 0.00 0.00 0.00 84 1014.6
20190615232035 65 244 0.0 1.0 0.00 0.00 0.00 84 1014.7
20190615231939 65 244 0.0 1.0 0.00 0.00 0.00 83 1014.7
20190615231836 65 244 0.0 1.0 0.00 0.00 0.00 83 1014.7
20190615231735 65 244 0.0 1.0 0.00 0.00 0.00 83 1014.7
20190615231622 65 244 0.0 1.0 0.00 0.00 0.00 83 1014.7
20190615231521 65 244 0.0 1.0 0.00 0.00 0.00 83 1014.6
20190615231417 65 244 0.0 1.0 0.00 0.00 0.00 83 1014.7
20190615231320 66 244 0.0 1.0 0.00 0.00 0.00 82 1014.7
20190615231215 66 244 0.0 1.0 0.00 0.00 0.00 82 1014.6
20190615231113 66 244 0.0 1.0 0.00 0.00 0.00 82 1014.7
20190615231012 66 244 0.0 1.0 0.00 0.00 0.00 82 1014.7
20190615230908 66 244 0.0 0.0 0.00 0.00 0.00 82 1014.7
20190615230758 66 244 0.0 0.0 0.00 0.00 0.00 82 1014.7
20190615230659 66 244 0.0 0.0 0.00 0.00 0.00 82 1014.7
20190615230602 66 244 0.0 0.0 0.00 0.00 0.00 81 1014.6
20190615230501 66 244 0.0 0.0 0.00 0.00 0.00 81 1014.6
20190615230357 66 244 0.0 0.0 0.00 0.00 0.00 81 1014.6
20190615230259 66 244 0.0 0.0 0.00 0.00 0.00 81 1014.5
20190615230153 66 244 0.0 0.0 0.00 0.00 0.00 81 1014.6
20190615230053 66 244 0.0 0.0 0.00 0.00 0.00 81 1014.6
20190615225957 66 244 0.0 0.0 0.00 0.00 0.00 81 1014.5
20190615225850 66 244 0.0 0.0 0.00 0.00 0.00 81 1014.5
20190615225749 66 244 0.0 0.0 0.00 0.00 0.00 81 1014.5
20190615225639 66 244 0.0 0.0 0.00 0.00 0.00 81 1014.5
20190615225538 66 244 0.0 1.0 0.00 0.00 0.00 81 1014.4
20190615225436 66 244 0.0 1.0 0.00 0.00 0.00 82 1014.4
20190615225334 66 244 0.0 1.0 0.00 0.00 0.00 81 1014.3
20190615225208 66 244 0.0 1.0 0.00 0.00 0.00 81 1014.4
20190615225106 67 244 0.0 2.0 0.00 0.00 0.00 81 1014.4
20190615225003 67 244 0.0 2.0 0.00 0.00 0.00 81 1014.4
20190615224859 67 244 0.0 2.0 0.00 0.00 0.00 81 1014.4
20190615224757 67 244 0.0 2.0 0.00 0.00 0.00 81 1014.4
20190615224655 67 244 0.0 2.0 0.00 0.00 0.00 80 1014.4
20190615224545 67 244 0.0 2.0 0.00 0.00 0.00 80 1014.4
20190615224445 67 244 1.0 2.0 0.00 0.00 0.00 80 1014.4
20190615224340 67 244 1.0 2.0 0.00 0.00 0.00 80 1014.4
20190615224238 67 244 0.0 2.0 0.00 0.00 0.00 80 1014.3
20190615224134 67 244 0.0 2.0 0.00 0.00 0.00 80 1014.3
20190615224034 67 244 1.0 2.0 0.00 0.00 0.00 80 1014.4
20190615223934 67 244 1.0 2.0 0.00 0.00 0.00 80 1014.4
20190615223833 67 244 1.0 2.0 0.00 0.00 0.00 80 1014.4
20190615223732 67 244 1.0 2.0 0.00 0.00 0.00 80 1014.4
20190615223622 67 244 0.0 1.0 0.00 0.00 0.00 80 1014.4
20190615223521 67 244 0.0 1.0 0.00 0.00 0.00 80 1014.4
20190615223418 67 244 0.0 2.0 0.00 0.00 0.00 80 1014.4
20190615223317 67 244 0.0 2.0 0.00 0.00 0.00 79 1014.4
20190615223153 67 244 0.0 2.0 0.00 0.00 0.00 79 1014.4
20190615223107 67 244 0.0 2.0 0.00 0.00 0.00 79 1012.8
20190615223052 67 244 0.0 2.0 0.00 0.00 0.00 79 1014.4
20190615222942 67 244 0.0 2.0 0.00 0.00 0.00 79 1014.4
20190615222839 67 244 0.0 2.0 0.00 0.00 0.00 79 1014.4
20190615222738 67 244 1.0 2.0 0.00 0.00 0.00 79 1014.4
20190615222636 67 244 1.0 2.0 0.00 0.00 0.00 79 1014.4
20190615222531 67 244 1.0 2.0 0.00 0.00 0.00 79 1014.4
20190615222411 68 244 0.0 2.0 0.00 0.00 0.00 79 1014.4
20190615222239 68 244 0.0 2.0 0.00 0.00 0.00 79 1014.4
20190615222135 68 244 1.0 3.0 0.00 0.00 0.00 79 1014.4
20190615221903 68 244 1.0 4.0 0.00 0.00 0.00 79 1014.4
20190615221806 68 244 1.0 4.0 0.00 0.00 0.00 79 1014.4
20190615221703 68 244 0.0 4.0 0.00 0.00 0.00 79 1014.3
20190615221622 67 244 1.0 4.0 0.00 0.00 0.00 79 1012.7
20190615221602 68 244 1.0 4.0 0.00 0.00 0.00 79 1014.3
20190615221452 68 244 2.0 4.0 0.00 0.00 0.00 79 1014.3
20190615221350 68 244 2.0 4.0 0.00 0.00 0.00 79 1014.3
20190615221249 68 244 3.0 4.0 0.00 0.00 0.00 79 1014.3
20190615221146 68 244 3.0 4.0 0.00 0.00 0.00 79 1014.3
20190615221045 68 244 3.0 4.0 0.00 0.00 0.00 79 1014.3
20190615220945 68 244 3.0 4.0 0.00 0.00 0.00 78 1014.2
20190615220840 68 186 3.0 4.0 0.00 0.00 0.00 78 1014.2
20190615220739 68 186 2.0 5.0 0.00 0.00 0.00 78 1014.2
20190615220638 68 152 2.0 3.0 0.00 0.00 0.00 78 1014.1
20190615220538 68 152 2.0 3.0 0.00 0.00 0.00 78 1014.1
20190615220436 68 152 2.0 3.0 0.00 0.00 0.00 78 1014.0
20190615220325 68 146 1.0 3.0 0.00 0.00 0.00 78 1014.0
20190615220157 68 145 1.0 3.0 0.00 0.00 0.00 78 1014.0
20190615220053 68 145 1.0 3.0 0.00 0.00 0.00 77 1014.0
20190615215949 68 145 1.0 3.0 0.00 0.00 0.00 77 1014.0
20190615215844 69 145 2.0 3.0 0.00 0.00 0.00 77 1014.0
20190615215745 69 145 2.0 3.0 0.00 0.00 0.00 77 1014.0
20190615215640 69 145 1.0 2.0 0.00 0.00 0.00 77 1014.0
20190615215538 69 145 1.0 2.0 0.00 0.00 0.00 77 1014.0
20190615215518 68 145 1.0 2.0 0.00 0.00 0.00 77 1012.4
20190615215425 69 145 1.0 2.0 0.00 0.00 0.00 76 1014.0
20190615215324 69 145 1.0 2.0 0.00 0.00 0.00 76 1014.0
20190615215200 69 145 1.0 2.0 0.00 0.00 0.00 76 1014.0
20190615215100 69 145 1.0 2.0 0.00 0.00 0.00 76 1014.0
20190615214958 69 145 1.0 2.0 0.00 0.00 0.00 76 1014.1
20190615214856 69 145 1.0 2.0 0.00 0.00 0.00 75 1014.1
20190615214753 70 145 1.0 2.0 0.00 0.00 0.00 75 1014.1
20190615214512 70 145 0.0 2.0 0.00 0.00 0.00 75 1014.1
20190615214405 70 145 0.0 1.0 0.00 0.00 0.00 74 1014.1
20190615214307 70 145 0.0 1.0 0.00 0.00 0.00 74 1014.1
20190615214200 70 145 0.0 1.0 0.00 0.00 0.00 74 1014.2
20190615214057 70 145 0.0 2.0 0.00 0.00 0.00 74 1014.2
20190615213955 70 145 0.0 3.0 0.00 0.00 0.00 74 1014.2
20190615213852 70 145 0.0 3.0 0.00 0.00 0.00 75 1014.2
20190615213741 70 145 0.0 3.0 0.00 0.00 0.00 75 1014.2
20190615213640 70 145 0.0 4.0 0.00 0.00 0.00 74 1014.2
20190615213538 70 145 0.0 4.0 0.00 0.00 0.00 74 1014.2
20190615213436 70 145 1.0 4.0 0.00 0.00 0.00 74 1014.2
20190615213334 70 145 1.0 4.0 0.00 0.00 0.00 74 1014.2
20190615213210 70 145 2.0 4.0 0.00 0.00 0.00 74 1014.1
20190615213057 70 145 2.0 4.0 0.00 0.00 0.00 74 1014.1
20190615213000 70 145 3.0 4.0 0.00 0.00 0.00 73 1014.2
20190615212856 71 145 3.0 4.0 0.00 0.00 0.00 73 1014.2
20190615212755 71 145 3.0 3.0 0.00 0.00 0.00 73 1014.2
20190615212655 71 274 2.0 3.0 0.00 0.00 0.00 72 1014.3
20190615212543 71 274 2.0 3.0 0.00 0.00 0.00 72 1014.2
20190615212422 71 274 1.0 4.0 0.00 0.00 0.00 72 1014.2
20190615212325 71 274 1.0 6.0 0.00 0.00 0.00 72 1014.2
20190615212220 71 274 1.0 6.0 0.00 0.00 0.00 72 1014.2
20190615212105 71 274 1.0 6.0 0.00 0.00 0.00 71 1014.2
20190615212003 71 274 2.0 6.0 0.00 0.00 0.00 71 1014.2
20190615211900 71 274 2.0 7.0 0.00 0.00 0.00 71 1014.2
20190615211800 71 274 2.0 7.0 0.00 0.00 0.00 71 1014.1
20190615211641 71 274 3.0 7.0 0.00 0.00 0.00 71 1014.1
20190615211540 71 274 3.0 7.0 0.00 0.00 0.00 71 1014.1
20190615211436 71 266 3.0 7.0 0.00 0.00 0.00 71 1014.1
20190615211131 71 254 4.0 7.0 0.00 0.00 0.00 71 1014.1
20190615211028 71 262 4.0 7.0 0.00 0.00 0.00 71 1014.1
20190615210923 71 255 5.0 7.0 0.00 0.00 0.00 71 1014.1
20190615210824 72 249 4.0 7.0 0.00 0.00 0.00 71 1014.1
20190615210713 72 262 4.0 7.0 0.00 0.00 0.00 70 1014.1
20190615210612 72 256 3.0 7.0 0.00 0.00 0.00 70 1014.1
20190615210511 72 256 3.0 8.0 0.00 0.00 0.00 70 1014.1
20190615210409 72 269 3.0 8.0 0.00 0.00 0.00 70 1014.1
20190615210307 72 268 3.0 8.0 0.00 0.00 0.00 70 1014.1
20190615210142 72 267 4.0 10.0 0.00 0.00 0.00 70 1014.2
20190615210037 72 272 4.0 10.0 0.00 0.00 0.00 70 1014.2
20190615205932 72 274 5.0 10.0 0.00 0.00 0.00 69 1014.2
20190615205820 72 272 6.0 10.0 0.00 0.00 0.00 69 1014.2
20190615205718 72 284 7.0 10.0 0.00 0.00 0.00 69 1014.3
20190615205617 72 274 6.0 10.0 0.00 0.00 0.00 69 1014.3
20190615205519 72 276 7.0 10.0 0.00 0.00 0.00 69 1014.3
20190615205414 72 280 7.0 10.0 0.00 0.00 0.00 69 1014.3
20190615205312 72 276 6.0 9.0 0.00 0.00 0.00 69 1014.3
20190615205208 72 268 6.0 9.0 0.00 0.00 0.00 69 1014.2
20190615205059 72 254 5.0 9.0 0.00 0.00 0.00 69 1014.2
20190615204958 72 253 4.0 9.0 0.00 0.00 0.00 69 1014.2
20190615204829 72 257 6.0 9.0 0.00 0.00 0.00 69 1014.2
20190615204727 72 254 7.0 11.0 0.00 0.00 0.00 69 1014.3
20190615204626 72 257 6.0 12.0 0.00 0.00 0.00 68 1014.2
20190615204524 72 259 6.0 12.0 0.00 0.00 0.00 68 1014.1
20190615204418 72 249 6.0 12.0 0.00 0.00 0.00 68 1014.1
20190615204316 72 245 6.0 12.0 0.00 0.00 0.00 68 1014.1
20190615204143 73 236 7.0 14.0 0.00 0.00 0.00 68 1014.2
20190615204038 73 270 8.0 14.0 0.00 0.00 0.00 68 1014.1
20190615203802 73 264 9.0 14.0 0.00 0.00 0.00 67 1014.1
20190615203659 73 246 9.0 14.0 0.00 0.00 0.00 68 1014.2
20190615203546 73 260 9.0 15.0 0.00 0.00 0.00 67 1014.2
20190615203444 73 256 10.0 15.0 0.00 0.00 0.00 67 1014.2
20190615203343 73 257 11.0 15.0 0.00 0.00 0.00 67 1014.2
20190615203240 73 262 10.0 16.0 0.00 0.00 0.00 67 1014.2
20190615203116 73 269 8.0 16.0 0.00 0.00 0.00 67 1014.1
20190615203013 73 264 9.0 16.0 0.00 0.00 0.00 67 1014.1
20190615202908 74 267 11.0 16.0 0.00 0.00 0.00 67 1014.1
20190615202757 74 263 12.0 16.0 0.00 0.00 0.00 67 1014.1
20190615202658 74 283 12.0 16.0 0.00 0.00 0.00 66 1014.1
20190615202548 74 284 12.0 16.0 0.00 0.00 0.00 66 1014.1
20190615202427 74 271 12.0 20.0 0.00 0.00 0.00 66 1014.1
20190615202325 74 272 13.0 20.0 0.00 0.00 0.00 66 1014.1
20190615202221 74 266 12.0 20.0 0.00 0.00 0.00 66 1014.1
20190615202118 74 259 12.0 20.0 0.00 0.00 0.00 65 1014.1
20190615202044 74 265 11.0 20.0 0.00 0.00 0.00 65 1012.4
20190615201950 74 265 12.0 20.0 0.00 0.00 0.00 65 1014.1
20190615201845 74 243 12.0 20.0 0.00 0.00 0.00 65 1014.1
20190615201741 74 280 13.0 20.0 0.00 0.00 0.00 65 1014.1
20190615201639 74 255 15.0 20.0 0.00 0.00 0.00 64 1014.1
20190615201537 74 257 13.0 19.0 0.00 0.00 0.00 64 1014.1
20190615201434 74 240 13.0 19.0 0.00 0.00 0.00 64 1014.0
20190615201338 74 240 15.0 19.0 0.00 0.00 0.00 64 1014.0
20190615201235 74 255 13.0 19.0 0.00 0.00 0.00 64 1014.0
20190615201122 74 248 12.0 19.0 0.00 0.00 0.00 64 1014.0
20190615201019 75 252 13.0 19.0 0.00 0.00 0.00 64 1013.9
20190615200917 75 236 13.0 19.0 0.00 0.00 0.00 64 1014.1
20190615200813 75 261 12.0 19.0 0.00 0.00 0.00 64 1014.0
20190615200713 75 258 10.0 18.0 0.00 0.00 0.00 64 1014.0
20190615200613 75 267 11.0 18.0 0.00 0.00 0.00 64 1014.0
20190615200514 75 259 13.0 18.0 0.00 0.00 0.00 64 1014.0
20190615200408 75 263 13.0 18.0 0.00 0.00 0.00 64 1013.9
20190615200305 75 262 13.0 18.0 0.00 0.00 0.00 64 1013.9
20190615200131 75 270 13.0 20.0 0.00 0.00 0.00 64 1013.9
20190615200026 75 261 13.0 20.0 0.00 0.00 0.00 64 1013.8
20190615195926 75 228 13.0 20.0 0.00 0.00 0.00 64 1013.8
20190615195825 75 272 12.0 20.0 0.00 0.00 0.00 64 1013.8
20190615195723 75 264 12.0 20.0 0.00 0.00 0.00 64 1013.8
20190615195622 75 255 12.0 20.0 0.00 0.00 0.00 64 1013.8
20190615195519 75 257 13.0 20.0 0.00 0.00 0.00 64 1013.7
20190615195407 75 247 13.0 20.0 0.00 0.00 0.00 64 1013.7
20190615195307 75 249 12.0 20.0 0.00 0.00 0.00 64 1013.7
20190615195203 75 256 13.0 20.0 0.00 0.00 0.00 64 1013.7
20190615195056 75 263 14.0 20.0 0.00 0.00 0.00 64 1013.6
20190615194955 75 241 14.0 20.0 0.00 0.00 0.00 64 1013.7
20190615194852 75 251 14.0 20.0 0.00 0.00 0.00 64 1013.6
20190615194751 75 247 13.0 20.0 0.00 0.00 0.00 65 1013.7
20190615194648 75 254 14.0 20.0 0.00 0.00 0.00 65 1013.5
20190615194541 75 252 14.0 20.0 0.00 0.00 0.00 65 1013.6
20190615194440 75 239 12.0 16.0 0.00 0.00 0.00 65 1013.7
20190615194336 75 259 11.0 16.0 0.00 0.00 0.00 65 1013.5
20190615194233 75 235 11.0 16.0 0.00 0.00 0.00 65 1013.5
20190615194109 75 254 11.0 16.0 0.00 0.00 0.00 65 1013.5
20190615194027 74 253 11.0 16.0 0.00 0.00 0.00 65 1011.8
20190615193940 75 239 12.0 16.0 0.00 0.00 0.00 65 1013.5
20190615193838 75 257 12.0 16.0 0.00 0.00 0.00 65 1013.4
20190615193737 75 257 10.0 15.0 0.00 0.00 0.00 66 1013.4
20190615193634 75 254 9.0 15.0 0.00 0.00 0.00 65 1013.4
20190615193530 75 244 9.0 15.0 0.00 0.00 0.00 65 1013.4
20190615193426 75 264 10.0 15.0 0.00 0.00 0.00 65 1013.4
20190615193323 75 244 10.0 15.0 0.00 0.00 0.00 65 1013.4
20190615193224 75 240 11.0 16.0 0.00 0.00 0.00 65 1013.4
20190615193051 75 249 11.0 19.0 0.00 0.00 0.00 65 1013.4
20190615192951 75 238 9.0 19.0 0.00 0.00 0.00 65 1013.4
20190615192845 76 245 10.0 21.0 0.00 0.00 0.00 65 1013.4
20190615192742 76 263 11.0 21.0 0.00 0.00 0.00 65 1013.4
20190615192639 76 293 11.0 21.0 0.00 0.00 0.00 64 1013.3
20190615192536 76 257 11.0 21.0 0.00 0.00 0.00 64 1013.3
20190615192406 76 250 14.0 21.0 0.00 0.00 0.00 64 1013.3
20190615192304 76 245 13.0 21.0 0.00 0.00 0.00 64 1013.3
20190615192201 76 246 13.0 21.0 0.00 0.00 0.00 64 1013.2
20190615192100 76 249 14.0 21.0 0.00 0.00 0.00 64 1013.2
20190615191955 76 239 13.0 21.0 0.00 0.00 0.00 64 1013.1
20190615191856 76 246 13.0 20.0 0.00 0.00 0.00 64 1013.2
20190615191754 76 230 13.0 21.0 0.00 0.00 0.00 64 1013.1
20190615191652 76 280 14.0 21.0 0.00 0.00 0.00 64 1013.1
20190615191551 76 250 12.0 21.0 0.00 0.00 0.00 63 1011.3
20190615191436 76 246 12.0 21.0 0.00 0.00 0.00 63 1013.0
20190615191334 76 245 14.0 21.0 0.00 0.00 0.00 63 1012.9
20190615191215 76 257 16.0 21.0 0.00 0.00 0.00 63 1013.0
20190615191053 76 253 15.0 22.0 0.00 0.00 0.00 63 1012.9
20190615190948 76 263 14.0 22.0 0.00 0.00 0.00 63 1012.9
20190615190845 76 253 15.0 22.0 0.00 0.00 0.00 63 1012.9
20190615190733 76 238 13.0 22.0 0.00 0.00 0.00 63 1012.9
20190615190633 76 255 12.0 22.0 0.00 0.00 0.00 63 1012.9
20190615190536 76 236 13.0 22.0 0.00 0.00 0.00 63 1012.8
20190615190430 76 261 13.0 22.0 0.00 0.00 0.00 63 1012.8
20190615190329 76 257 14.0 22.0 0.00 0.00 0.00 63 1012.8
20190615190225 76 238 13.0 22.0 0.00 0.00 0.00 63 1012.8
20190615190100 76 261 12.0 20.0 0.00 0.00 0.00 63 1012.8
20190615185957 76 265 13.0 20.0 0.00 0.00 0.00 63 1012.8
20190615185852 76 234 13.0 20.0 0.00 0.00 0.00 63 1012.8
20190615185747 76 248 12.0 21.0 0.00 0.00 0.00 63 1012.8
20190615185644 76 261 13.0 21.0 0.00 0.00 0.00 63 1012.8
20190615185533 77 229 13.0 25.0 0.00 0.00 0.00 62 1012.8
20190615185427 77 245 14.0 25.0 0.00 0.00 0.00 62 1012.8
20190615185323 77 233 13.0 25.0 0.00 0.00 0.00 62 1012.9
20190615185224 77 263 13.0 25.0 0.00 0.00 0.00 62 1012.8
20190615185059 77 263 15.0 25.0 0.00 0.00 0.00 62 1012.8
20190615184956 77 250 15.0 25.0 0.00 0.00 0.00 62 1012.8
20190615184851 77 234 15.0 25.0 0.00 0.00 0.00 62 1012.9
20190615184748 77 255 16.0 25.0 0.00 0.00 0.00 62 1012.8
20190615184644 77 250 17.0 24.0 0.00 0.00 0.00 62 1012.8
20190615184513 77 261 17.0 24.0 0.00 0.00 0.00 62 1012.8
20190615184407 77 257 15.0 24.0 0.00 0.00 0.00 62 1012.8
20190615184303 77 250 13.0 24.0 0.00 0.00 0.00 62 1012.8
20190615184157 77 270 12.0 24.0 0.00 0.00 0.00 62 1012.8
20190615184030 77 278 13.0 24.0 0.00 0.00 0.00 62 1012.8
20190615183907 77 251 14.0 24.0 0.00 0.00 0.00 62 1012.7
20190615183800 77 251 16.0 24.0 0.00 0.00 0.00 62 1012.7
20190615183657 77 235 15.0 24.0 0.00 0.00 0.00 62 1012.7
20190615183555 77 264 14.0 24.0 0.00 0.00 0.00 62 1012.7
20190615183453 77 251 14.0 24.0 0.00 0.00 0.00 62 1012.7
20190615183345 77 238 15.0 24.0 0.00 0.00 0.00 61 1012.6
20190615183216 77 264 16.0 24.0 0.00 0.00 0.00 61 1012.6
20190615183049 78 254 16.0 21.0 0.00 0.00 0.00 61 1012.6
20190615182946 78 247 17.0 21.0 0.00 0.00 0.00 61 1012.5
20190615182840 78 267 16.0 21.0 0.00 0.00 0.00 61 1012.5
20190615182737 78 287 15.0 26.0 0.00 0.00 0.00 60 1012.5
20190615182632 78 250 14.0 26.0 0.00 0.00 0.00 60 1012.6
20190615182526 78 223 13.0 26.0 0.00 0.00 0.00 60 1012.5
20190615182404 78 251 13.0 26.0 0.00 0.00 0.00 60 1012.5
20190615182258 78 273 13.0 26.0 0.00 0.00 0.00 60 1012.5
20190615182158 78 273 14.0 26.0 0.00 0.00 0.00 59 1012.5
20190615182021 78 245 16.0 26.0 0.00 0.00 0.00 59 1012.4
20190615181859 78 270 16.0 23.0 0.00 0.00 0.00 59 1012.3
20190615181757 78 279 14.0 20.0 0.00 0.00 0.00 59 1012.5
20190615181652 78 270 15.0 20.0 0.00 0.00 0.00 59 1012.4
20190615181550 78 251 16.0 25.0 0.00 0.00 0.00 59 1012.4
20190615181443 78 268 14.0 25.0 0.00 0.00 0.00 59 1012.3
20190615181339 78 242 13.0 25.0 0.00 0.00 0.00 59 1012.4
20190615181207 79 267 13.0 25.0 0.00 0.00 0.00 59 1012.3
20190615181042 79 263 13.0 25.0 0.00 0.00 0.00 59 1012.3
20190615180931 79 247 15.0 25.0 0.00 0.00 0.00 59 1012.2
20190615180759 79 254 15.0 25.0 0.00 0.00 0.00 59 1012.2
20190615180654 79 254 13.0 16.0 0.00 0.00 0.00 59 1012.2
20190615180537 79 242 11.0 17.0 0.00 0.00 0.00 60 1012.2
20190615180431 79 238 11.0 17.0 0.00 0.00 0.00 60 1012.2
20190615180329 79 245 10.0 17.0 0.00 0.00 0.00 60 1012.2
20190615180223 79 256 10.0 17.0 0.00 0.00 0.00 60 1012.1
20190615180150 79 258 9.0 17.0 0.00 0.00 0.00 60 1010.3
20190615180119 79 269 9.0 17.0 0.00 0.00 0.00 60 1012.0
20190615175938 80 226 10.0 17.0 0.00 0.00 0.00 59 1012.0
20190615175819 80 269 12.0 17.0 0.00 0.00 0.00 58 1011.9
20190615175714 80 240 12.0 17.0 0.00 0.00 0.00 58 1011.9
20190615175551 80 252 12.0 17.0 0.00 0.00 0.00 58 1011.8
20190615175521 80 261 11.0 17.0 0.00 0.00 0.00 58 1010.1
20190615175418 80 255 12.0 19.0 0.00 0.00 0.00 58 1011.8
20190615175313 80 240 11.0 19.0 0.00 0.00 0.00 59 1011.8
20190615175152 80 245 10.0 19.0 0.00 0.00 0.00 59 1011.7
20190615175027 81 267 9.0 19.0 0.00 0.00 0.00 58 1011.7
20190615174737 81 238 12.0 24.0 0.00 0.00 0.00 57 1011.6
20190615174616 81 243 12.0 24.0 0.00 0.00 0.00 57 1011.6
20190615174513 81 253 12.0 25.0 0.00 0.00 0.00 57 1011.5
20190615174345 81 266 15.0 25.0 0.00 0.00 0.00 56 1011.6
20190615174205 81 257 15.0 25.0 0.00 0.00 0.00 55 1011.5
20190615174038 81 245 15.0 25.0 0.00 0.00 0.00 55 1011.6
20190615173902 81 270 17.0 25.0 0.00 0.00 0.00 56 1011.6
20190615173742 81 266 15.0 25.0 0.00 0.00 0.00 57 1011.5
20190615173612 81 259 13.0 24.0 0.00 0.00 0.00 60 1011.6
20190615173552 81 204 12.0 24.0 0.00 0.00 0.00 60 1009.8
20190615173441 81 257 13.0 24.0 0.00 0.00 0.00 61 1011.5
20190615173317 81 255 16.0 24.0 0.00 0.00 0.00 60 1011.4
20190615173141 81 242 13.0 24.0 0.00 0.00 0.00 61 1011.3
20190615173017 82 254 11.0 17.0 0.00 0.00 0.00 62 1011.3
20190615172906 82 257 9.0 12.0 0.00 0.00 0.00 64 1011.3
20190615172741 82 245 8.0 12.0 0.00 0.00 0.00 65 1011.2
20190615172637 82 247 9.0 12.0 0.00 0.00 0.00 64 1011.2
20190615172518 82 250 9.0 12.0 0.00 0.00 0.00 64 1011.1
20190615172305 83 236 7.0 12.0 0.00 0.00 0.00 63 1011.1
20190615172139 83 234 7.0 10.0 0.00 0.00 0.00 62 1011.1
20190615172013 83 238 7.0 10.0 0.00 0.00 0.00 62 1011.1
20190615171856 83 232 7.0 10.0 0.00 0.00 0.00 62 1011.1
20190615171721 83 240 6.0 10.0 0.00 0.00 0.00 61 1011.1
20190615171551 83 238 7.0 10.0 0.00 0.00 0.00 61 1011.0
20190615171447 84 240 6.0 9.0 0.00 0.00 0.00 60 1011.0
20190615171342 84 241 5.0 8.0 0.00 0.00 0.00 60 1011.1
20190615171237 84 240 5.0 8.0 0.00 0.00 0.00 60 1011.0
20190615171135 84 236 5.0 8.0 0.00 0.00 0.00 59 1011.1
20190615171033 84 243 5.0 8.0 0.00 0.00 0.00 59 1011.1
20190615170856 85 240 6.0 8.0 0.00 0.00 0.00 58 1011.1
20190615170752 85 243 6.0 8.0 0.00 0.00 0.00 58 1011.1
20190615170650 85 243 5.0 7.0 0.00 0.00 0.00 58 1011.1
20190615170526 86 237 4.0 6.0 0.00 0.00 0.00 57 1011.1
20190615170423 86 236 4.0 5.0 0.00 0.00 0.00 56 1011.0
20190615170305 86 235 3.0 5.0 0.00 0.00 0.00 56 1011.1
20190615170205 87 235 2.0 4.0 0.00 0.00 0.00 56 1011.0
20190615170010 87 235 2.0 4.0 0.00 0.00 0.00 55 1011.0
20190615165829 88 235 2.0 5.0 0.00 0.00 0.00 53 1011.0
20190615165430 89 235 3.0 5.0 0.00 0.00 0.00 51 1011.0
20190615165317 89 235 3.0 5.0 0.00 0.00 0.00 50 1011.0
20190615165213 89 235 3.0 5.0 0.00 0.00 0.00 50 1011.0
20190615165113 89 235 4.0 5.0 0.00 0.00 0.00 49 1010.9
20190615165016 89 235 4.0 5.0 0.00 0.00 0.00 48 1011.0
20190615164912 90 236 4.0 5.0 0.00 0.00 0.00 48 1010.9
20190615164817 90 236 4.0 5.0 0.00 0.00 0.00 47 1011.0
20190615164716 90 238 4.0 5.0 0.00 0.00 0.00 47 1010.9
20190615164616 90 240 4.0 5.0 0.00 0.00 0.00 46 1010.9
20190615164518 90 240 4.0 5.0 0.00 0.00 0.00 46 1010.9
20190615164407 90 246 4.0 5.0 0.00 0.00 0.00 44 1010.9
20190615164310 91 252 4.0 5.0 0.00 0.00 0.00 44 1010.9
20190615164207 91 258 3.0 5.0 0.00 0.00 0.00 45 1010.9
20190615164112 91 274 2.0 4.0 0.00 0.00 0.00 44 1010.8
20190615163955 91 274 2.0 4.0 0.00 0.00 0.00 40 1010.8
20190615163849 91 274 3.0 6.0 0.00 0.00 0.00 39 1010.8
20190615163748 91 274 3.0 6.0 0.00 0.00 0.00 36 1010.8
20190615163638 91 274 3.0 6.0 0.00 0.00 0.00 36 1010.8
20190615163539 91 271 3.0 7.0 0.00 0.00 0.00 38 1010.8
20190615163445 91 271 3.0 7.0 0.00 0.00 0.00 38 1010.8
20190615163341 91 271 3.0 7.0 0.00 0.00 0.00 38 1010.8
20190615163241 91 271 3.0 7.0 0.00 0.00 0.00 37 1010.9
20190615163138 91 272 4.0 7.0 0.00 0.00 0.00 37 1010.9
20190615163040 91 272 4.0 7.0 0.00 0.00 0.00 34 1010.9
20190615162935 91 273 4.0 7.0 0.00 0.00 0.00 34 1010.9
20190615162828 92 273 5.0 7.0 0.00 0.00 0.00 35 1010.9
20190615162725 92 273 5.0 7.0 0.00 0.00 0.00 36 1010.9
20190615162627 92 277 5.0 7.0 0.00 0.00 0.00 37 1010.9
20190615162518 92 270 5.0 7.0 0.00 0.00 0.00 37 1010.9
20190615162358 92 269 4.0 7.0 0.00 0.00 0.00 36 1010.9
20190615162256 92 269 3.0 7.0 0.00 0.00 0.00 38 1010.9
20190615162159 92 269 3.0 7.0 0.00 0.00 0.00 37 1010.9
20190615162058 92 269 3.0 7.0 0.00 0.00 0.00 35 1010.9
20190615162035 92 269 2.0 7.0 0.00 0.00 0.00 35 1009.2
20190615161948 92 269 3.0 7.0 0.00 0.00 0.00 36 1010.9
20190615161842 92 269 4.0 7.0 0.00 0.00 0.00 35 1010.9
20190615161741 92 269 4.0 7.0 0.00 0.00 0.00 35 1010.9
20190615161640 93 268 4.0 7.0 0.00 0.00 0.00 35 1010.9
20190615161539 93 268 4.0 7.0 0.00 0.00 0.00 34 1010.9
20190615161442 93 268 4.0 7.0 0.00 0.00 0.00 35 1011.0
20190615161337 93 268 4.0 7.0 0.00 0.00 0.00 34 1010.9
20190615161234 93 268 4.0 7.0 0.00 0.00 0.00 34 1011.0
20190615161121 93 270 5.0 7.0 0.00 0.00 0.00 34 1011.0
20190615160956 93 276 4.0 7.0 0.00 0.00 0.00 32 1010.9
20190615160852 94 272 4.0 7.0 0.00 0.00 0.00 33 1011.0
20190615160756 94 280 4.0 6.0 0.00 0.00 0.00 32 1010.9
20190615160655 94 272 4.0 6.0 0.00 0.00 0.00 35 1010.9
20190615160551 94 280 4.0 6.0 0.00 0.00 0.00 35 1010.9
20190615160525 94 280 3.0 6.0 0.00 0.00 0.00 35 1009.2
20190615160442 94 291 3.0 4.0 0.00 0.00 0.00 36 1011.0
20190615160337 94 291 2.0 3.0 0.00 0.00 0.00 34 1010.9
20190615160234 94 291 2.0 4.0 0.00 0.00 0.00 34 1010.9
20190615160136 94 291 2.0 4.0 0.00 0.00 0.00 33 1010.9
20190615160035 94 291 2.0 4.0 0.00 0.00 0.00 34 1011.0
20190615155912 94 291 0.0 4.0 0.00 0.00 0.00 33 1010.9
20190615155800 94 291 0.0 4.0 0.00 0.00 0.00 32 1010.9
20190615155659 94 291 0.0 4.0 0.00 0.00 0.00 33 1011.0
20190615155555 94 291 1.0 4.0 0.00 0.00 0.00 33 1010.9
20190615155457 94 291 2.0 4.0 0.00 0.00 0.00 33 1010.9
20190615155352 94 291 2.0 4.0 0.00 0.00 0.00 38 1010.9
20190615155251 94 291 2.0 3.0 0.00 0.00 0.00 36 1010.9
20190615155149 94 291 2.0 3.0 0.00 0.00 0.00 35 1010.9
20190615155039 94 291 1.0 3.0 0.00 0.00 0.00 34 1010.9
20190615154914 94 291 0.0 2.0 0.00 0.00 0.00 34 1010.9
20190615154814 94 291 0.0 2.0 0.00 0.00 0.00 33 1010.9
20190615154713 94 291 1.0 2.0 0.00 0.00 0.00 35 1010.9
20190615154613 94 291 1.0 2.0 0.00 0.00 0.00 35 1010.9
20190615154512 94 291 1.0 2.0 0.00 0.00 0.00 38 1010.8
20190615154408 94 291 1.0 4.0 0.00 0.00 0.00 38 1010.8
20190615154258 94 291 0.0 5.0 0.00 0.00 0.00 36 1010.9
20190615154155 94 291 0.0 5.0 0.00 0.00 0.00 36 1010.9
20190615154058 94 291 0.0 5.0 0.00 0.00 0.00 35 1010.9
20190615153931 94 291 1.0 5.0 0.00 0.00 0.00 37 1010.9
20190615153829 94 291 1.0 5.0 0.00 0.00 0.00 39 1010.9
20190615153729 94 291 1.0 5.0 0.00 0.00 0.00 37 1010.9
20190615153616 94 291 3.0 5.0 0.00 0.00 0.00 36 1010.9
20190615153515 94 291 3.0 5.0 0.00 0.00 0.00 36 1010.9
20190615153414 94 291 3.0 7.0 0.00 0.00 0.00 36 1010.9
20190615153313 94 291 2.0 7.0 0.00 0.00 0.00 37 1010.9
20190615153207 94 291 2.0 7.0 0.00 0.00 0.00 37 1011.0
20190615153113 93 291 3.0 7.0 0.00 0.00 0.00 37 1009.2
20190615153105 94 291 3.0 7.0 0.00 0.00 0.00 36 1011.0
20190615152932 94 291 3.0 7.0 0.00 0.00 0.00 37 1011.0
20190615152830 94 291 3.0 7.0 0.00 0.00 0.00 36 1011.0
20190615152734 94 291 3.0 7.0 0.00 0.00 0.00 36 1011.0
20190615152633 94 291 2.0 7.0 0.00 0.00 0.00 37 1011.0
20190615152522 93 268 1.0 2.0 0.00 0.00 0.00 38 1011.0
20190615152405 93 268 1.0 3.0 0.00 0.00 0.00 39 1011.0
20190615152301 93 268 1.0 4.0 0.00 0.00 0.00 38 1011.0
20190615152148 93 268 0.0 4.0 0.00 0.00 0.00 36 1011.0
20190615152051 93 268 0.0 4.0 0.00 0.00 0.00 37 1011.0
20190615151951 93 268 0.0 4.0 0.00 0.00 0.00 37 1011.0
20190615151842 93 268 0.0 4.0 0.00 0.00 0.00 39 1011.0
20190615151741 93 268 1.0 4.0 0.00 0.00 0.00 36 1011.0
20190615151638 93 268 2.0 4.0 0.00 0.00 0.00 38 1011.1
20190615151536 93 268 3.0 4.0 0.00 0.00 0.00 36 1011.1
20190615151437 92 268 3.0 4.0 0.00 0.00 0.00 38 1011.1
20190615151336 92 268 2.0 4.0 0.00 0.00 0.00 38 1011.1
20190615151224 92 268 2.0 4.0 0.00 0.00 0.00 41 1011.2
20190615151125 92 268 2.0 4.0 0.00 0.00 0.00 38 1011.1
20190615151023 92 268 1.0 6.0 0.00 0.00 0.00 37 1011.2
20190615150858 92 268 1.0 7.0 0.00 0.00 0.00 37 1011.2
20190615150759 92 268 2.0 7.0 0.00 0.00 0.00 41 1011.2
20190615150656 92 268 2.0 7.0 0.00 0.00 0.00 37 1011.3
20190615150545 92 268 2.0 7.0 0.00 0.00 0.00 40 1011.3
20190615150443 92 268 3.0 8.0 0.00 0.00 0.00 40 1011.4
20190615150340 92 268 4.0 8.0 0.00 0.00 0.00 41 1011.4
20190615150236 92 268 4.0 8.0 0.00 0.00 0.00 40 1011.4
20190615150133 92 261 3.0 8.0 0.00 0.00 0.00 41 1011.4
20190615150037 92 265 4.0 8.0 0.00 0.00 0.00 41 1011.4
20190615145754 92 264 5.0 8.0 0.00 0.00 0.00 43 1011.5
20190615145652 92 264 5.0 8.0 0.00 0.00 0.00 44 1011.6
20190615145551 92 251 4.0 7.0 0.00 0.00 0.00 49 1011.6
20190615145450 92 242 3.0 5.0 0.00 0.00 0.00 49 1011.6
20190615145349 92 240 3.0 5.0 0.00 0.00 0.00 50 1011.6
20190615145250 92 240 2.0 5.0 0.00 0.00 0.00 50 1011.6
20190615145147 91 241 2.0 4.0 0.00 0.00 0.00 50 1011.6
20190615145035 91 241 2.0 5.0 0.00 0.00 0.00 48 1011.7
20190615144929 91 241 3.0 6.0 0.00 0.00 0.00 47 1011.7
20190615144824 91 241 3.0 8.0 0.00 0.00 0.00 49 1011.7
20190615144722 91 240 3.0 8.0 0.00 0.00 0.00 53 1011.7
20190615144626 91 238 3.0 8.0 0.00 0.00 0.00 51 1011.7
20190615144525 91 238 3.0 8.0 0.00 0.00 0.00 50 1011.7
20190615144423 91 238 3.0 8.0 0.00 0.00 0.00 50 1011.7
20190615144320 91 238 3.0 8.0 0.00 0.00 0.00 50 1011.7
20190615144217 91 238 4.0 8.0 0.00 0.00 0.00 49 1011.7
20190615144105 91 243 4.0 8.0 0.00 0.00 0.00 48 1011.8
20190615144003 91 247 4.0 7.0 0.00 0.00 0.00 47 1011.8
20190615143843 91 250 5.0 9.0 0.00 0.00 0.00 47 1011.8
20190615143741 91 250 4.0 10.0 0.00 0.00 0.00 47 1011.8
20190615143639 91 251 4.0 10.0 0.00 0.00 0.00 47 1011.8
20190615143539 91 250 4.0 10.0 0.00 0.00 0.00 45 1011.8
20190615143513 91 250 4.0 10.0 0.00 0.00 0.00 46 1010.1
20190615143426 91 250 4.0 10.0 0.00 0.00 0.00 45 1011.9
20190615143326 91 250 5.0 10.0 0.00 0.00 0.00 47 1011.9
20190615143228 91 242 5.0 10.0 0.00 0.00 0.00 46 1011.9
20190615143128 91 232 7.0 10.0 0.00 0.00 0.00 48 1011.9
20190615143026 91 261 6.0 10.0 0.00 0.00 0.00 45 1011.9
20190615142920 91 261 5.0 9.0 0.00 0.00 0.00 50 1012.0
20190615142815 91 244 6.0 9.0 0.00 0.00 0.00 49 1012.0
20190615142715 91 243 5.0 9.0 0.00 0.00 0.00 48 1012.0
20190615142617 91 239 5.0 10.0 0.00 0.00 0.00 51 1012.0
20190615142549 91 249 4.0 10.0 0.00 0.00 0.00 48 1010.3
20190615142458 91 253 5.0 10.0 0.00 0.00 0.00 50 1012.0
20190615142337 91 232 5.0 10.0 0.00 0.00 0.00 47 1012.1
20190615142236 91 262 5.0 10.0 0.00 0.00 0.00 47 1012.0
20190615142134 91 249 5.0 10.0 0.00 0.00 0.00 47 1012.0
20190615142033 91 253 6.0 10.0 0.00 0.00 0.00 47 1012.1
20190615141932 91 257 8.0 10.0 0.00 0.00 0.00 46 1012.0
20190615141824 91 255 7.0 10.0 0.00 0.00 0.00 45 1012.1
20190615141724 91 265 5.0 10.0 0.00 0.00 0.00 47 1012.1
20190615141612 90 251 3.0 7.0 0.00 0.00 0.00 48 1012.1
20190615141510 90 246 3.0 7.0 0.00 0.00 0.00 48 1012.1
20190615141407 90 246 3.0 7.0 0.00 0.00 0.00 46 1012.0
20190615141304 90 154 3.0 4.0 0.00 0.00 0.00 51 1012.1
20190615141205 89 133 2.0 4.0 0.00 0.00 0.00 52 1012.1
20190615141105 89 133 2.0 3.0 0.00 0.00 0.00 55 1012.1
20190615141005 89 134 2.0 3.0 0.00 0.00 0.00 54 1012.0
20190615140859 89 134 1.0 3.0 0.00 0.00 0.00 56 1012.1
20190615140616 88 133 1.0 3.0 0.00 0.00 0.00 56 1012.1
20190615140516 88 133 1.0 3.0 0.00 0.00 0.00 55 1012.1
20190615140418 88 133 2.0 3.0 0.00 0.00 0.00 58 1012.1
20190615140317 88 133 1.0 3.0 0.00 0.00 0.00 57 1012.1
20190615140215 88 133 1.0 3.0 0.00 0.00 0.00 58 1012.1
20190615140126 87 133 0.0 3.0 0.00 0.00 0.00 55 1010.3
20190615140113 88 134 1.0 3.0 0.00 0.00 0.00 57 1012.1
20190615140001 88 134 1.0 3.0 0.00 0.00 0.00 55 1012.1
20190615135857 88 133 2.0 3.0 0.00 0.00 0.00 55 1012.1
20190615135755 88 134 1.0 3.0 0.00 0.00 0.00 56 1012.1
20190615135654 88 134 0.0 2.0 0.00 0.00 0.00 57 1012.1
20190615135551 88 133 0.0 2.0 0.00 0.00 0.00 58 1012.1
20190615135451 88 133 0.0 2.0 0.00 0.00 0.00 56 1012.2
20190615135348 87 133 0.0 2.0 0.00 0.00 0.00 56 1012.1
20190615135247 87 134 1.0 2.0 0.00 0.00 0.00 54 1012.1
20190615135136 87 133 1.0 2.0 0.00 0.00 0.00 56 1012.2
20190615135036 87 133 1.0 2.0 0.00 0.00 0.00 54 1012.2
20190615134932 87 133 1.0 2.0 0.00 0.00 0.00 55 1012.2
20190615134811 87 133 1.0 2.0 0.00 0.00 0.00 55 1012.1
20190615134709 87 133 1.0 2.0 0.00 0.00 0.00 55 1012.2
20190615134558 87 133 1.0 2.0 0.00 0.00 0.00 58 1012.2
20190615134456 87 133 1.0 2.0 0.00 0.00 0.00 55 1012.2
20190615134357 87 133 1.0 2.0 0.00 0.00 0.00 55 1012.1
20190615134256 87 133 1.0 2.0 0.00 0.00 0.00 55 1012.1
20190615134151 87 133 1.0 2.0 0.00 0.00 0.00 56 1012.2
20190615134051 87 133 1.0 2.0 0.00 0.00 0.00 55 1012.2
20190615133952 87 133 1.0 3.0 0.00 0.00 0.00 56 1012.2
20190615133847 87 133 1.0 3.0 0.00 0.00 0.00 54 1012.2
20190615133747 87 133 1.0 3.0 0.00 0.00 0.00 55 1012.2
20190615133639 87 133 1.0 3.0 0.00 0.00 0.00 55 1012.2
20190615133537 87 133 1.0 3.0 0.00 0.00 0.00 55 1012.2
20190615133306 87 133 2.0 4.0 0.00 0.00 0.00 56 1012.2
20190615133202 87 134 2.0 4.0 0.00 0.00 0.00 57 1012.2
20190615133052 87 133 1.0 4.0 0.00 0.00 0.00 58 1012.2
20190615132955 87 133 2.0 4.0 0.00 0.00 0.00 56 1012.1
20190615132829 87 134 2.0 4.0 0.00 0.00 0.00 53 1012.1
20190615132726 87 133 2.0 4.0 0.00 0.00 0.00 53 1012.1
20190615132625 87 134 2.0 4.0 0.00 0.00 0.00 53 1012.1
20190615132515 87 133 2.0 4.0 0.00 0.00 0.00 54 1012.1
20190615132329 87 133 2.0 3.0 0.00 0.00 0.00 54 1012.1
20190615132227 87 133 2.0 3.0 0.00 0.00 0.00 54 1012.1
20190615132124 87 134 2.0 3.0 0.00 0.00 0.00 53 1012.1
20190615132005 87 133 2.0 4.0 0.00 0.00 0.00 54 1012.1
20190615131901 87 133 2.0 4.0 0.00 0.00 0.00 53 1012.1
20190615131748 87 133 2.0 4.0 0.00 0.00 0.00 54 1012.1
20190615131631 87 133 2.0 4.0 0.00 0.00 0.00 54 1012.1
20190615131510 87 133 2.0 4.0 0.00 0.00 0.00 52 1012.1
20190615131407 87 133 2.0 4.0 0.00 0.00 0.00 56 1012.1
20190615131307 87 133 2.0 4.0 0.00 0.00 0.00 56 1012.1
20190615131157 87 134 2.0 4.0 0.00 0.00 0.00 55 1012.1
20190615131040 87 134 2.0 4.0 0.00 0.00 0.00 55 1012.1
20190615130937 87 134 2.0 4.0 0.00 0.00 0.00 53 1012.1
20190615130814 87 134 2.0 4.0 0.00 0.00 0.00 55 1012.1
20190615130712 87 133 2.0 5.0 0.00 0.00 0.00 55 1012.1
20190615130613 87 133 2.0 5.0 0.00 0.00 0.00 55 1012.1
20190615130554 87 133 1.0 5.0 0.00 0.00 0.00 55 1010.4
20190615130502 87 133 1.0 5.0 0.00 0.00 0.00 55 1012.1
20190615130343 87 133 1.0 5.0 0.00 0.00 0.00 56 1012.2
20190615130242 87 133 2.0 7.0 0.00 0.00 0.00 56 1012.2
20190615130140 87 133 3.0 7.0 0.00 0.00 0.00 56 1012.1
20190615130041 87 131 3.0 7.0 0.00 0.00 0.00 56 1012.2
20190615125941 87 131 3.0 7.0 0.00 0.00 0.00 56 1012.2
20190615125808 87 131 3.0 7.0 0.00 0.00 0.00 56 1012.2
20190615125709 87 130 3.0 7.0 0.00 0.00 0.00 56 1012.2
20190615125607 87 136 4.0 7.0 0.00 0.00 0.00 55 1012.2
20190615125507 87 138 4.0 7.0 0.00 0.00 0.00 56 1012.2
20190615125402 87 149 3.0 6.0 0.00 0.00 0.00 56 1012.2
20190615125300 87 130 3.0 6.0 0.00 0.00 0.00 56 1012.3
20190615125154 87 130 3.0 6.0 0.00 0.00 0.00 55 1012.3
20190615125058 88 129 3.0 6.0 0.00 0.00 0.00 54 1012.3
20190615125040 87 129 2.0 6.0 0.00 0.00 0.00 54 1010.5
20190615124949 88 129 3.0 5.0 0.00 0.00 0.00 54 1012.3
20190615124823 88 126 2.0 4.0 0.00 0.00 0.00 54 1012.2
20190615124719 88 126 1.0 3.0 0.00 0.00 0.00 56 1012.3
20190615124618 88 98 0.0 4.0 0.00 0.00 0.00 56 1012.2
20190615124517 88 98 0.0 4.0 0.00 0.00 0.00 55 1012.2
20190615124420 88 98 1.0 4.0 0.00 0.00 0.00 55 1012.2
20190615124320 88 98 2.0 4.0 0.00 0.00 0.00 57 1012.2
20190615124208 88 98 2.0 4.0 0.00 0.00 0.00 55 1012.2
20190615124105 88 98 2.0 4.0 0.00 0.00 0.00 55 1012.2
20190615124004 88 98 2.0 4.0 0.00 0.00 0.00 56 1012.2
20190615123901 88 99 3.0 4.0 0.00 0.00 0.00 54 1012.2
20190615123741 88 98 2.0 4.0 0.00 0.00 0.00 54 1012.2
20190615123644 88 98 2.0 4.0 0.00 0.00 0.00 52 1012.3
20190615123530 88 98 2.0 6.0 0.00 0.00 0.00 54 1012.3
20190615123425 88 98 2.0 6.0 0.00 0.00 0.00 53 1012.3
20190615123303 88 99 2.0 6.0 0.00 0.00 0.00 52 1012.3
20190615123159 88 98 2.0 6.0 0.00 0.00 0.00 51 1012.3
20190615123057 88 98 2.0 6.0 0.00 0.00 0.00 52 1012.3
20190615123033 87 98 1.0 6.0 0.00 0.00 0.00 52 1010.6
20190615122930 87 99 1.0 6.0 0.00 0.00 0.00 54 1012.4
20190615122827 87 97 2.0 6.0 0.00 0.00 0.00 56 1012.4
20190615122721 87 97 3.0 6.0 0.00 0.00 0.00 54 1012.4
20190615122621 87 100 3.0 6.0 0.00 0.00 0.00 54 1012.4
20190615122513 87 99 3.0 6.0 0.00 0.00 0.00 56 1012.4
20190615122359 87 100 2.0 6.0 0.00 0.00 0.00 56 1012.4
20190615122259 87 102 2.0 6.0 0.00 0.00 0.00 57 1012.4
20190615122154 87 103 2.0 4.0 0.00 0.00 0.00 56 1012.3
20190615122041 86 118 2.0 3.0 0.00 0.00 0.00 56 1012.3
20190615121937 86 118 2.0 4.0 0.00 0.00 0.00 58 1012.4
20190615121816 86 118 1.0 4.0 0.00 0.00 0.00 60 1012.4
20190615121714 86 118 1.0 4.0 0.00 0.00 0.00 60 1012.4
20190615121615 86 118 1.0 4.0 0.00 0.00 0.00 60 1012.5
20190615121514 86 118 1.0 4.0 0.00 0.00 0.00 63 1012.5
20190615121412 86 118 2.0 4.0 0.00 0.00 0.00 62 1012.5
20190615121302 86 118 2.0 4.0 0.00 0.00 0.00 60 1012.5
20190615121158 86 118 2.0 4.0 0.00 0.00 0.00 61 1012.6
20190615121003 86 114 2.0 4.0 0.00 0.00 0.00 61 1012.5
20190615120719 86 114 2.0 3.0 0.00 0.00 0.00 62 1012.6
20190615120616 86 114 2.0 3.0 0.00 0.00 0.00 62 1012.6
20190615120514 86 114 1.0 3.0 0.00 0.00 0.00 61 1012.6
20190615120408 85 114 1.0 3.0 0.00 0.00 0.00 61 1012.6
20190615120307 85 114 1.0 4.0 0.00 0.00 0.00 61 1012.6
20190615120209 85 114 2.0 4.0 0.00 0.00 0.00 60 1012.5
20190615120108 85 114 2.0 4.0 0.00 0.00 0.00 62 1012.6
20190615120005 85 114 2.0 4.0 0.00 0.00 0.00 61 1012.6
20190615115852 85 114 2.0 4.0 0.00 0.00 0.00 60 1012.6
20190615115749 85 114 2.0 4.0 0.00 0.00 0.00 60 1012.6
20190615115642 85 114 2.0 4.0 0.00 0.00 0.00 60 1012.6
20190615115546 85 114 2.0 4.0 0.00 0.00 0.00 59 1012.6
20190615115445 85 114 2.0 4.0 0.00 0.00 0.00 58 1012.6
20190615115340 85 114 1.0 4.0 0.00 0.00 0.00 60 1012.6
20190615115236 85 114 2.0 4.0 0.00 0.00 0.00 61 1012.6
20190615115125 85 114 2.0 4.0 0.00 0.00 0.00 59 1012.5
20190615115025 85 114 1.0 3.0 0.00 0.00 0.00 60 1012.6
20190615114922 85 114 1.0 3.0 0.00 0.00 0.00 59 1012.5
20190615114825 85 114 2.0 3.0 0.00 0.00 0.00 59 1012.5
20190615114721 85 114 2.0 3.0 0.00 0.00 0.00 60 1012.5
20190615114620 85 114 1.0 3.0 0.00 0.00 0.00 63 1012.5
20190615114520 85 114 1.0 3.0 0.00 0.00 0.00 63 1012.5
20190615114416 85 114 1.0 3.0 0.00 0.00 0.00 64 1012.5
20190615114304 85 114 1.0 3.0 0.00 0.00 0.00 63 1012.6
20190615114203 85 114 1.0 2.0 0.00 0.00 0.00 64 1012.5
20190615114104 84 114 0.0 2.0 0.00 0.00 0.00 65 1012.5
20190615114003 84 114 0.0 3.0 0.00 0.00 0.00 62 1012.6
20190615113900 84 114 0.0 3.0 0.00 0.00 0.00 62 1012.5
20190615113758 84 114 0.0 3.0 0.00 0.00 0.00 63 1012.5
20190615113653 84 114 0.0 3.0 0.00 0.00 0.00 63 1012.5
20190615113413 84 114 1.0 3.0 0.00 0.00 0.00 62 1012.5
20190615113311 84 114 1.0 4.0 0.00 0.00 0.00 62 1012.5
20190615113206 84 114 2.0 4.0 0.00 0.00 0.00 64 1012.5
20190615113107 84 112 2.0 4.0 0.00 0.00 0.00 64 1012.5
20190615113103 83 112 1.0 4.0 0.00 0.00 0.00 64 1010.8
20190615112958 84 112 1.0 4.0 0.00 0.00 0.00 62 1012.5
20190615112855 84 112 1.0 4.0 0.00 0.00 0.00 61 1012.6
20190615112749 84 112 1.0 4.0 0.00 0.00 0.00 62 1012.6
20190615112649 84 112 1.0 4.0 0.00 0.00 0.00 62 1012.5
20190615112542 84 112 2.0 4.0 0.00 0.00 0.00 61 1012.6
20190615112422 84 112 2.0 4.0 0.00 0.00 0.00 60 1012.7
20190615112320 84 112 2.0 4.0 0.00 0.00 0.00 61 1012.7
20190615112206 84 112 2.0 3.0 0.00 0.00 0.00 63 1012.7
20190615112106 84 112 1.0 4.0 0.00 0.00 0.00 63 1012.7
20190615112011 84 112 2.0 4.0 0.00 0.00 0.00 61 1012.7
20190615111908 84 112 2.0 4.0 0.00 0.00 0.00 60 1012.7
20190615111637 84 112 1.0 6.0 0.00 0.00 0.00 60 1012.7
20190615111527 84 112 2.0 6.0 0.00 0.00 0.00 62 1012.7
20190615111423 84 112 2.0 6.0 0.00 0.00 0.00 60 1012.7
20190615111320 84 112 2.0 6.0 0.00 0.00 0.00 59 1012.7
20190615111222 84 112 2.0 6.0 0.00 0.00 0.00 59 1012.7
20190615111122 84 112 2.0 6.0 0.00 0.00 0.00 59 1012.8
20190615111019 84 112 2.0 6.0 0.00 0.00 0.00 61 1012.7
20190615110916 84 90 2.0 3.0 0.00 0.00 0.00 60 1012.8
20190615110746 84 90 1.0 2.0 0.00 0.00 0.00 61 1012.8
20190615110642 84 90 1.0 3.0 0.00 0.00 0.00 62 1012.7
20190615110544 84 90 0.0 4.0 0.00 0.00 0.00 67 1012.8
20190615110442 84 90 0.0 4.0 0.00 0.00 0.00 67 1012.8
20190615110337 84 90 0.0 4.0 0.00 0.00 0.00 66 1012.7
20190615110236 84 90 0.0 4.0 0.00 0.00 0.00 66 1012.7
20190615110136 84 90 0.0 4.0 0.00 0.00 0.00 66 1012.7
20190615110026 84 90 1.0 4.0 0.00 0.00 0.00 68 1012.6
20190615105928 84 90 1.0 4.0 0.00 0.00 0.00 68 1012.6
20190615105826 84 90 2.0 4.0 0.00 0.00 0.00 68 1012.5
20190615105725 84 90 3.0 4.0 0.00 0.00 0.00 67 1012.5
20190615105621 84 90 2.0 4.0 0.00 0.00 0.00 66 1012.5
20190615105521 84 90 2.0 4.0 0.00 0.00 0.00 66 1012.5
20190615105416 84 90 2.0 4.0 0.00 0.00 0.00 66 1012.5
20190615105306 84 90 3.0 4.0 0.00 0.00 0.00 65 1012.6
20190615105206 84 90 3.0 4.0 0.00 0.00 0.00 65 1012.6
20190615105106 84 90 3.0 4.0 0.00 0.00 0.00 65 1012.6
20190615104944 84 90 2.0 4.0 0.00 0.00 0.00 67 1012.6
20190615104838 84 90 3.0 4.0 0.00 0.00 0.00 66 1012.6
20190615104734 84 90 3.0 4.0 0.00 0.00 0.00 65 1012.6
20190615104620 85 90 3.0 4.0 0.00 0.00 0.00 65 1012.6
20190615104525 85 90 3.0 4.0 0.00 0.00 0.00 64 1012.6
20190615104420 85 90 2.0 4.0 0.00 0.00 0.00 64 1012.6
20190615104316 85 90 2.0 3.0 0.00 0.00 0.00 64 1012.7
20190615104212 85 90 1.0 2.0 0.00 0.00 0.00 64 1012.7
20190615104110 85 90 0.0 2.0 0.00 0.00 0.00 64 1012.6
20190615104049 84 90 0.0 2.0 0.00 0.00 0.00 64 1010.9
20190615104000 85 90 0.0 3.0 0.00 0.00 0.00 64 1012.6
20190615103900 85 90 0.0 3.0 0.00 0.00 0.00 63 1012.6
20190615103800 85 90 1.0 3.0 0.00 0.00 0.00 63 1012.6
20190615103658 85 90 1.0 3.0 0.00 0.00 0.00 64 1012.6
20190615103557 85 90 1.0 3.0 0.00 0.00 0.00 64 1012.6
20190615103455 85 90 1.0 3.0 0.00 0.00 0.00 64 1012.5
20190615103352 85 90 1.0 3.0 0.00 0.00 0.00 64 1012.5
20190615103252 85 90 1.0 3.0 0.00 0.00 0.00 64 1012.5
20190615103155 85 90 1.0 3.0 0.00 0.00 0.00 63 1012.5
20190615103045 85 90 1.0 3.0 0.00 0.00 0.00 60 1012.5
20190615102943 85 90 0.0 3.0 0.00 0.00 0.00 60 1012.5
20190615102840 85 90 1.0 3.0 0.00 0.00 0.00 60 1012.5
20190615102611 85 90 1.0 3.0 0.00 0.00 0.00 62 1012.5
20190615102552 84 90 0.0 3.0 0.00 0.00 0.00 62 1010.8
20190615102458 85 90 1.0 3.0 0.00 0.00 0.00 62 1012.5
20190615102338 85 90 1.0 3.0 0.00 0.00 0.00 61 1012.5
20190615102237 85 90 2.0 3.0 0.00 0.00 0.00 61 1012.5
20190615102136 85 90 1.0 3.0 0.00 0.00 0.00 61 1012.5
20190615102034 85 90 1.0 3.0 0.00 0.00 0.00 61 1012.4
20190615101931 85 90 2.0 3.0 0.00 0.00 0.00 60 1012.5
20190615101828 85 90 2.0 3.0 0.00 0.00 0.00 60 1012.5
20190615101702 85 90 2.0 2.0 0.00 0.00 0.00 62 1012.5
20190615101600 85 90 1.0 3.0 0.00 0.00 0.00 61 1012.5
20190615101501 85 90 1.0 3.0 0.00 0.00 0.00 60 1012.4
20190615101356 85 90 1.0 3.0 0.00 0.00 0.00 61 1012.4
20190615101254 85 90 1.0 4.0 0.00 0.00 0.00 64 1012.4
20190615101150 85 90 1.0 4.0 0.00 0.00 0.00 64 1012.4
20190615100915 85 90 2.0 4.0 0.00 0.00 0.00 63 1012.3
20190615100811 84 90 2.0 4.0 0.00 0.00 0.00 62 1012.3
20190615100709 84 90 2.0 4.0 0.00 0.00 0.00 62 1012.2
20190615100606 84 90 3.0 4.0 0.00 0.00 0.00 61 1012.2
20190615100506 84 90 3.0 4.0 0.00 0.00 0.00 61 1012.2
20190615100402 84 90 2.0 4.0 0.00 0.00 0.00 59 1012.2
20190615100254 84 90 1.0 4.0 0.00 0.00 0.00 58 1012.1
20190615100151 84 90 1.0 4.0 0.00 0.00 0.00 61 1012.1
20190615100050 84 90 1.0 4.0 0.00 0.00 0.00 61 1012.1
20190615095947 84 90 2.0 4.0 0.00 0.00 0.00 60 1012.1
20190615095844 84 90 3.0 4.0 0.00 0.00 0.00 58 1012.2
20190615095744 84 90 3.0 4.0 0.00 0.00 0.00 58 1012.2
20190615095643 84 90 2.0 3.0 0.00 0.00 0.00 59 1012.2
20190615095533 84 90 2.0 3.0 0.00 0.00 0.00 59 1012.2
20190615095431 84 90 2.0 3.0 0.00 0.00 0.00 60 1012.2
20190615095328 84 90 2.0 3.0 0.00 0.00 0.00 60 1012.3
20190615095224 84 90 2.0 3.0 0.00 0.00 0.00 60 1012.3
20190615095120 84 90 1.0 4.0 0.00 0.00 0.00 60 1012.3
20190615095020 84 90 0.0 4.0 0.00 0.00 0.00 62 1012.3
20190615094920 84 90 1.0 4.0 0.00 0.00 0.00 62 1012.3
20190615094818 84 90 1.0 4.0 0.00 0.00 0.00 61 1012.3
20190615094645 84 90 1.0 4.0 0.00 0.00 0.00 61 1012.3
20190615094545 84 90 1.0 4.0 0.00 0.00 0.00 60 1012.3
20190615094442 84 90 1.0 4.0 0.00 0.00 0.00 60 1012.3
20190615094339 84 90 3.0 4.0 0.00 0.00 0.00 59 1012.3
20190615094241 84 90 3.0 4.0 0.00 0.00 0.00 59 1012.3
20190615094131 84 90 2.0 4.0 0.00 0.00 0.00 59 1012.3
20190615094028 84 90 2.0 4.0 0.00 0.00 0.00 59 1012.3
20190615093925 84 90 2.0 4.0 0.00 0.00 0.00 58 1012.3
20190615093821 84 90 2.0 4.0 0.00 0.00 0.00 59 1012.3
20190615093720 84 90 2.0 3.0 0.00 0.00 0.00 61 1012.4
20190615093452 84 90 1.0 3.0 0.00 0.00 0.00 61 1012.3
20190615093337 84 90 0.0 3.0 0.00 0.00 0.00 63 1012.3
20190615093234 84 90 0.0 3.0 0.00 0.00 0.00 64 1012.3
20190615093132 84 90 1.0 3.0 0.00 0.00 0.00 62 1012.3
20190615093031 84 90 2.0 3.0 0.00 0.00 0.00 63 1012.3
20190615092927 84 90 2.0 3.0 0.00 0.00 0.00 65 1012.3
20190615092828 83 90 1.0 3.0 0.00 0.00 0.00 65 1012.3
20190615092728 83 101 1.0 3.0 0.00 0.00 0.00 63 1012.3
20190615092621 83 101 1.0 3.0 0.00 0.00 0.00 62 1012.3
20190615092554 83 101 0.0 3.0 0.00 0.00 0.00 63 1010.5
20190615092502 83 101 1.0 3.0 0.00 0.00 0.00 63 1012.3
20190615092341 83 101 1.0 3.0 0.00 0.00 0.00 63 1012.3
20190615092238 83 101 1.0 3.0 0.00 0.00 0.00 63 1012.3
20190615092141 83 101 1.0 3.0 0.00 0.00 0.00 64 1012.3
20190615092041 83 101 2.0 3.0 0.00 0.00 0.00 62 1012.3
20190615091936 83 101 1.0 3.0 0.00 0.00 0.00 63 1012.3
20190615091837 83 101 0.0 1.0 0.00 0.00 0.00 65 1012.4
20190615091706 83 101 0.0 1.0 0.00 0.00 0.00 65 1012.4
20190615091600 83 101 0.0 2.0 0.00 0.00 0.00 65 1012.4
20190615091503 82 101 0.0 2.0 0.00 0.00 0.00 66 1012.4
20190615091400 82 101 0.0 3.0 0.00 0.00 0.00 67 1012.4
20190615091257 82 101 0.0 3.0 0.00 0.00 0.00 66 1012.4
20190615091146 82 101 0.0 4.0 0.00 0.00 0.00 67 1012.5
20190615091045 82 101 0.0 4.0 0.00 0.00 0.00 68 1012.5
20190615090946 82 101 0.0 4.0 0.00 0.00 0.00 66 1012.6
20190615090828 82 101 1.0 6.0 0.00 0.00 0.00 67 1012.5